                ,  0.675,  0.775,  0.875,  0.975,  1.075,  1.175,  1.275,  1.375,  1.475,  1.575,  1.675,  1.775,  1.875,  1.975,  2.075,  2.175,  2.275,  2.375,  2.475,  2.575,  2.675,  2.775,  2.875,  2.975,  3.075,  3.175,  3.275,  3.375,  3.475,  3.575,  3.675,  3.775,  3.875,  3.975,  4.075,  4.175,  4.275,  4.375,  4.475,  4.575,  4.675,  4.775,  4.875,  4.975,  5.075,  5.175,  5.275,  5.375,  5.475,  5.575,  5.675,  5.775,  5.875,  5.975,  6.075,  6.175,  6.275,  6.375,  6.475,  6.575,  6.675,  6.775,  6.875,  6.975,  7.075,  7.175,  7.275,  7.375,  7.475,  7.575
2004/10/20 00:00,   -3.7,  999.0,   -2.7,   -3.2,   -3.8,   -3.4,   -3.3,   -3.4,   -3.4,   -3.3,   -3.2,   -3.0,   -2.6,   -2.4,   -2.5,   -2.4,   -2.4,   -2.3,   -2.1,   -2.0,   -2.0,   -1.8,   -2.2,   -2.6,   -2.6,   -2.4,   -2.1,   -2.0,   -2.1,   -2.1,   -2.1,   -1.7,   -1.3,   -1.4,   -1.3,   -1.3,   -0.9,   -0.8,   -0.7,   -0.5,   -0.5,   -1.0,   -0.4,   -0.6,   -0.5,   -0.2,  999.0,  999.0,  999.0,  999.0,  999.0,  999.0,  999.0,  999.0,  999.0,  999.0,  999.0,  999.0,  999.0,  999.0,  999.0,  999.0,  999.0,  999.0,  999.0,  999.0,  999.0,  999.0,  999.0,  999.0
2004/10/20 00:10,   -3.2,   -3.0,   -3.7,   -2.6,   -3.2,   -3.5,   -3.3,   -3.7,   -3.5,   -3.3,   -3.1,   -3.2,   -2.3,   -2.4,   -2.2,   -2.1,   -2.1,   -2.2,   -2.3,   -2.3,   -2.1,   -2.2,   -2.1,   -1.9,   -2.1,   -1.7,   -1.6,   -1.5,   -1.4,   -1.4,   -1.6,   -1.4,   -1.4,   -0.5,   -1.2,   -1.4,   -1.2,   -1.1,   -0.4,   -0.4,   -0.3,   -0.6,   -0.3,   -0.1,   -0.1,   -0.3,  999.0,   -0.5,  999.0,   -0.8,  999.0,  999.0,  999.0,  999.0,  999.0,  999.0,  999.0,  999.0,  999.0,  999.0,  999.0,  999.0,  999.0,  999.0,  999.0,  999.0,  999.0,  999.0,  999.0,  999.0
2004/10/20 00:20,   -3.6,   -3.7,   -3.2,   -3.2,   -2.9,   -2.7,   -2.8,   -2.6,   -2.6,   -2.8,   -2.7,   -2.8,   -2.8,   -2.9,   -2.8,   -2.8,   -2.8,   -2.4,   -2.2,   -2.0,   -2.2,   -2.2,   -2.2,   -1.9,   -1.8,   -1.9,   -2.1,   -2.0,   -2.1,   -1.5,   -2.0,   -1.4,   -1.4,   -1.5,   -1.9,   -1.3,   -1.0,   -1.1,   -0.9,   -0.9,   -0.9,   -0.6,   -0.8,    0.1,   -0.6,   -0.5,   -0.5,   -0.7,  999.0,  999.0,  999.0,  999.0,  999.0,  999.0,  999.0,  999.0,  999.0,  999.0,  999.0,  999.0,  999.0,  999.0,  999.0,  999.0,  999.0,  999.0,  999.0,  999.0,  999.0,  999.0
2004/10/20 00:30,   -3.2,   -3.3,  999.0,   -2.5,   -2.5,   -2.2,   -2.0,   -1.9,   -2.1,   -2.4,   -2.3,   -2.1,   -2.1,   -1.9,   -1.8,   -1.6,   -1.6,   -1.6,   -1.5,   -1.5,   -1.4,   -1.5,   -1.4,   -1.1,   -1.1,   -1.2,   -1.1,   -1.4,   -1.3,   -1.0,   -0.8,   -1.1,   -1.2,   -1.1,   -1.1,   -1.2,   -1.0,   -0.9,   -1.3,   -0.9,   -0.8,  999.0,  999.0,  999.0,  999.0,  999.0,   -0.9,  999.0,  999.0,  999.0,  999.0,  999.0,  999.0,  999.0,  999.0,  999.0,  999.0,  999.0,  999.0,  999.0,  999.0,  999.0,  999.0,  999.0,  999.0,  999.0,  999.0,  999.0,  999.0,  999.0
2004/10/20 00:40,   -3.1,   -3.2,  999.0,   -3.1,   -3.1,   -3.4,   -3.2,   -3.4,   -3.4,   -2.8,   -3.0,   -3.0,   -2.5,   -2.0,   -1.8,   -1.6,   -2.0,   -2.4,   -2.2,   -2.6,   -2.6,   -2.5,   -2.3,   -2.2,   -2.7,   -2.9,   -2.9,   -3.1,   -3.0,   -2.7,   -2.4,   -2.5,   -2.8,   -2.1,   -1.5,   -1.0,   -1.3,   -1.1,   -0.9,   -0.7,   -0.6,   -0.6,   -1.2,   -0.8,   -0.6,   -0.4,   -0.0,  999.0,  999.0,  999.0,  999.0,  999.0,  999.0,  999.0,  999.0,  999.0,  999.0,  999.0,  999.0,  999.0,  999.0,  999.0,  999.0,  999.0,  999.0,  999.0,  999.0,  999.0,  999.0,  999.0
2004/10/20 00:50,   -4.0,   -3.2,  999.0,   -3.5,   -3.5,   -3.4,   -4.2,   -4.3,   -4.1,   -4.1,   -4.3,   -4.3,   -4.2,   -4.0,   -3.9,   -3.8,   -3.5,   -3.4,   -3.4,   -3.5,   -3.2,   -3.0,   -3.0,   -3.3,   -3.2,   -3.0,   -3.3,   -3.1,   -2.9,   -2.8,   -2.9,   -3.0,   -2.5,   -2.4,   -2.4,   -2.5,   -2.0,   -1.6,   -1.4,   -1.0,   -1.5,   -1.9,   -1.5,   -1.3,   -1.4,   -1.4,   -1.4,   -1.1,  999.0,  999.0,  999.0,  999.0,  999.0,  999.0,  999.0,  999.0,  999.0,  999.0,  999.0,  999.0,  999.0,  999.0,  999.0,  999.0,  999.0,  999.0,  999.0,  999.0,  999.0,  999.0
2004/10/20 01:00,   -3.3,   -3.5,  999.0,   -3.8,   -2.9,   -3.1,   -3.1,   -3.0,   -3.0,   -3.3,   -3.1,   -3.0,   -2.7,   -2.8,   -2.8,   -2.7,   -2.5,   -2.3,   -2.1,   -2.5,   -2.5,   -2.3,   -2.1,   -2.0,   -2.0,   -1.9,   -1.7,   -1.6,   -1.4,   -1.5,   -1.1,   -1.1,   -1.1,   -0.9,   -0.5,   -0.5,   -0.3,   -0.6,   -0.6,   -0.8,   -0.7,   -0.9,  999.0,  999.0,   -0.6,  999.0,  999.0,  999.0,  999.0,  999.0,  999.0,  999.0,  999.0,  999.0,  999.0,  999.0,  999.0,  999.0,  999.0,  999.0,  999.0,  999.0,  999.0,  999.0,  999.0,  999.0,  999.0,  999.0,  999.0,  999.0
2004/10/20 01:10,   -3.1,   -3.7,  999.0,   -2.7,   -2.8,   -2.6,   -2.5,   -2.3,   -2.4,   -2.5,   -2.6,   -2.7,   -2.6,   -2.5,   -2.4,   -2.2,   -2.1,   -2.0,   -1.9,   -2.1,   -2.0,   -1.9,   -1.8,   -1.7,   -1.4,   -1.0,   -0.9,   -0.6,   -0.5,   -0.7,   -0.9,   -0.5,   -0.5,   -0.4,   -0.3,   -0.3,    0.1,    0.1,   -0.3,   -0.4,   -0.2,  999.0,  999.0,  999.0,   -0.6,   -0.9,  999.0,  999.0,  999.0,  999.0,  999.0,  999.0,  999.0,  999.0,  999.0,  999.0,  999.0,  999.0,  999.0,  999.0,  999.0,  999.0,  999.0,  999.0,  999.0,  999.0,  999.0,  999.0,  999.0,  999.0
2004/10/20 01:20,   -2.4,   -2.4,  999.0,   -2.4,   -2.4,   -2.3,   -2.2,   -2.1,   -2.2,   -2.3,   -2.3,   -2.2,   -2.0,   -1.9,   -1.9,   -1.8,   -1.7,   -1.6,   -1.5,   -1.3,   -1.2,   -1.3,   -1.1,   -1.0,   -0.7,   -0.5,   -0.3,   -0.5,   -0.7,   -0.5,   -0.4,   -0.2,    0.0,   -0.1,    0.4,   -0.2,   -0.2,   -0.3,   -0.5,   -0.4,   -0.4,  999.0,   -1.1,   -0.6,  999.0,  999.0,  999.0,  999.0,  999.0,  999.0,  999.0,  999.0,  999.0,  999.0,  999.0,  999.0,  999.0,  999.0,  999.0,  999.0,  999.0,  999.0,  999.0,  999.0,  999.0,  999.0,  999.0,  999.0,  999.0,  999.0
2004/10/20 01:30,   -2.8,   -3.0,  999.0,   -2.5,   -2.4,   -2.3,   -2.3,   -2.4,   -2.4,   -2.4,   -2.4,   -2.3,   -2.2,   -2.1,   -1.9,   -1.8,   -1.7,   -1.6,   -1.6,   -1.6,   -1.6,   -1.6,   -2.0,   -1.8,   -1.7,   -1.4,   -1.3,   -1.7,   -1.2,   -1.2,   -0.9,   -1.0,   -0.9,   -1.0,   -0.7,   -0.5,   -0.5,   -0.6,   -0.7,   -0.7,   -0.7,  999.0,  999.0,  999.0,  999.0,  999.0,  999.0,  999.0,  999.0,  999.0,  999.0,  999.0,  999.0,  999.0,  999.0,  999.0,  999.0,  999.0,  999.0,  999.0,  999.0,  999.0,  999.0,  999.0,  999.0,  999.0,  999.0,  999.0,  999.0,  999.0
2004/10/20 01:40,   -4.5,   -4.8,   -4.3,   -4.2,   -3.9,   -4.2,   -3.8,   -3.5,   -3.1,   -2.9,   -2.7,   -2.6,   -2.6,   -2.6,   -2.7,   -2.5,   -2.4,   -2.2,   -2.0,   -2.1,   -2.0,   -2.0,   -1.9,   -1.8,   -1.7,   -1.5,   -1.3,   -1.1,   -1.0,   -1.4,   -0.6,   -0.8,   -0.6,   -0.1,   -0.0,   -0.0,   -0.2,   -0.1,    0.4,    0.2,   -0.5,  999.0,  999.0,  999.0,  999.0,  999.0,  999.0,  999.0,  999.0,  999.0,  999.0,  999.0,  999.0,  999.0,  999.0,  999.0,  999.0,  999.0,  999.0,  999.0,  999.0,  999.0,  999.0,  999.0,  999.0,  999.0,  999.0,  999.0,  999.0,  999.0
2004/10/20 01:50,   -3.3,   -3.3,   -3.4,   -3.0,   -3.0,   -3.0,   -2.9,   -3.0,   -2.4,   -2.2,   -2.2,   -2.0,   -2.0,   -1.8,   -1.8,   -1.7,   -1.5,   -1.3,   -1.2,   -1.0,   -0.8,   -0.7,   -0.6,   -0.4,   -0.2,   -0.1,   -0.1,   -0.1,   -0.4,   -0.2,   -0.1,   -0.3,   -0.2,   -0.1,   -0.6,   -1.0,   -1.4,   -1.0,   -1.1,   -1.1,   -0.7,   -0.7,   -0.8,   -0.6,  999.0,  999.0,  999.0,  999.0,  999.0,  999.0,  999.0,  999.0,  999.0,  999.0,  999.0,  999.0,  999.0,  999.0,  999.0,  999.0,  999.0,  999.0,  999.0,  999.0,  999.0,  999.0,  999.0,  999.0,  999.0,  999.0
2004/10/20 02:00,   -1.7,  999.0,  999.0,  999.0,   -1.6,   -1.4,   -0.9,   -0.8,   -0.3,   -0.1,   -0.6,   -0.4,    0.2,    0.2,   -0.1,   -0.2,   -0.0,   -0.0,    0.0,  999.0,  999.0,    0.2,    0.0,   -0.1,   -0.2,   -0.5,   -0.5,   -0.3,   -0.6,   -0.3,   -0.2,   -0.5,   -0.6,   -0.8,   -0.5,   -0.2,   -0.4,   -0.8,   -0.7,   -0.6,  999.0,  999.0,  999.0,   -0.5,   -0.2,  999.0,  999.0,  999.0,  999.0,  999.0,  999.0,  999.0,  999.0,  999.0,  999.0,  999.0,  999.0,  999.0,  999.0,  999.0,  999.0,  999.0,  999.0,  999.0,  999.0,  999.0,  999.0,  999.0,  999.0,  999.0
2004/10/20 02:10,   -1.2,   -0.9,   -1.1,   -1.3,   -1.2,   -1.3,   -1.0,   -1.1,   -0.7,   -0.4,   -0.2,   -0.1,   -0.1,    0.1,    0.1,    0.0,    0.1,    0.1,    0.1,    0.1,   -0.3,   -0.3,   -0.2,   -0.5,   -0.7,   -0.6,   -0.3,   -0.3,   -0.7,   -0.5,   -0.5,   -0.6,   -0.3,   -0.7,   -0.8,   -0.6,   -0.0,   -0.1,   -0.0,    0.1,  999.0,   -0.6,   -0.3,   -0.4,   -0.5,  999.0,   -0.7,   -0.6,   -0.7,  999.0,  999.0,  999.0,   -1.2,  999.0,  999.0,  999.0,  999.0,  999.0,  999.0,  999.0,  999.0,  999.0,  999.0,  999.0,  999.0,  999.0,  999.0,  999.0,  999.0,  999.0
2004/10/20 02:20,   -2.5,   -2.4,   -2.1,   -1.4,   -1.1,   -0.9,   -0.7,   -0.8,   -1.0,   -1.0,   -0.9,   -1.1,   -1.0,   -0.7,   -0.9,   -0.8,   -0.7,   -0.9,   -0.7,   -0.6,   -0.6,   -0.6,   -0.0,   -0.0,   -0.2,   -0.1,   -0.2,   -0.3,   -0.9,   -0.9,   -1.1,   -1.1,   -1.0,   -0.7,   -1.1,   -0.9,   -0.5,   -0.6,   -0.4,   -0.2,   -0.7,   -0.1,   -0.6,   -0.5,   -0.5,   -0.3,   -0.3,  999.0,  999.0,  999.0,  999.0,  999.0,  999.0,   -0.5,  999.0,  999.0,  999.0,  999.0,  999.0,   -0.8,  999.0,  999.0,  999.0,  999.0,  999.0,  999.0,  999.0,  999.0,  999.0,  999.0
2004/10/20 02:30,   -3.1,   -3.3,  999.0,  999.0,   -3.6,   -4.0,   -3.0,   -2.6,   -3.5,   -3.4,   -3.6,   -3.5,   -3.4,   -3.4,   -3.4,   -3.4,   -3.6,   -3.6,   -3.7,   -3.6,   -3.4,   -3.2,   -2.9,   -2.7,   -2.5,   -2.3,   -2.5,   -2.6,   -2.9,   -3.0,   -3.1,   -2.7,   -2.3,   -2.2,   -2.2,   -3.2,   -3.1,   -2.6,   -2.5,   -2.4,   -2.0,   -1.5,   -1.9,   -1.9,   -1.4,   -1.2,   -0.9,   -1.0,   -1.1,   -0.9,  999.0,  999.0,  999.0,  999.0,  999.0,  999.0,   -0.3,  999.0,  999.0,   -0.2,  999.0,  999.0,  999.0,  999.0,  999.0,  999.0,  999.0,  999.0,  999.0,  999.0
2004/10/20 02:40,   -4.9,   -4.8,   -4.7,   -4.5,   -4.4,   -4.2,   -3.9,   -4.4,   -4.4,   -3.9,   -4.0,   -4.0,   -3.7,   -3.7,   -3.8,   -4.0,   -4.1,   -4.2,   -3.6,   -3.7,   -4.2,   -4.1,   -3.5,   -3.5,   -3.4,   -3.4,   -3.4,   -3.5,   -3.5,   -3.5,   -3.8,   -3.3,   -3.1,   -4.0,   -4.5,   -5.4,   -2.7,  999.0,   -2.9,  999.0,   -1.9,   -1.6,   -1.9,   -1.8,   -1.7,   -1.7,   -1.2,   -0.8,   -0.9,   -1.5,   -1.2,  999.0,  999.0,   -0.8,  999.0,  999.0,   -0.7,   -0.6,  999.0,  999.0,  999.0,  999.0,  999.0,  999.0,  999.0,  999.0,  999.0,  999.0,  999.0,  999.0
2004/10/20 02:50,   -2.5,   -2.4,   -2.3,   -2.2,   -1.9,   -1.7,   -1.5,   -1.4,   -1.2,   -0.6,   -0.5,   -0.5,   -0.2,   -0.0,   -0.0,    0.2,    0.2,   -0.0,    0.0,    0.0,   -0.1,   -0.3,   -0.2,   -0.1,   -0.1,   -0.1,   -0.1,    0.0,    0.1,   -0.3,   -0.3,   -0.3,   -0.0,  999.0,  999.0,  999.0,  999.0,  999.0,  999.0,  999.0,  999.0,  999.0,  999.0,  999.0,  999.0,  999.0,  999.0,  999.0,  999.0,  999.0,  999.0,  999.0,  999.0,  999.0,  999.0,  999.0,  999.0,  999.0,  999.0,  999.0,  999.0,  999.0,  999.0,  999.0,  999.0,  999.0,  999.0,  999.0,  999.0,  999.0
2004/10/20 03:00,   -1.1,   -1.1,   -1.0,   -0.7,   -0.5,   -0.3,   -0.4,   -0.3,   -0.2,   -0.1,   -0.2,   -0.1,   -0.2,   -0.2,   -0.3,   -0.1,   -0.1,   -0.0,   -0.0,   -0.1,   -0.0,   -0.0,   -0.0,   -0.1,    0.1,    0.0,   -0.4,   -0.3,   -0.0,   -0.2,    0.0,   -0.1,   -0.1,  999.0,   -0.9,   -0.8,   -0.7,   -0.6,   -0.7,   -0.9,   -0.5,   -0.4,   -0.2,  999.0,  999.0,  999.0,  999.0,  999.0,  999.0,  999.0,  999.0,  999.0,  999.0,  999.0,  999.0,  999.0,  999.0,  999.0,  999.0,  999.0,  999.0,  999.0,  999.0,  999.0,  999.0,  999.0,  999.0,  999.0,   -1.6,   -1.8
2004/10/20 03:10,   -0.2,   -0.2,   -0.6,   -0.1,   -0.2,  999.0,   -0.4,   -0.2,   -0.3,   -0.3,   -0.1,   -0.1,   -0.1,   -0.9,   -0.2,   -0.3,   -1.3,   -1.2,   -1.0,   -1.5,   -1.4,   -1.3,   -0.8,   -0.7,   -0.7,   -0.4,   -0.2,   -0.2,   -0.2,   -0.3,   -0.2,   -0.2,   -0.6,  999.0,   -1.3,   -1.0,   -0.5,   -0.3,   -0.1,   -0.3,   -0.7,   -0.4,   -0.7,  999.0,  999.0,  999.0,  999.0,   -0.2,  999.0,  999.0,  999.0,  999.0,  999.0,  999.0,  999.0,  999.0,  999.0,  999.0,  999.0,  999.0,  999.0,  999.0,  999.0,  999.0,  999.0,   -2.2,   -2.0,   -2.0,   -1.9,   -2.2
2004/10/20 03:20,  999.0,   -1.2,   -1.4,   -1.9,   -1.6,   -2.6,   -2.3,   -2.6,   -2.2,   -2.5,   -2.2,   -2.4,   -2.3,   -2.3,   -2.1,   -2.0,   -2.1,   -2.0,   -2.1,   -2.1,   -2.1,   -2.0,   -1.9,   -1.7,   -1.5,   -1.5,   -1.6,   -1.4,   -1.1,   -1.0,   -0.8,   -1.0,   -0.8,   -0.6,   -0.3,   -0.0,   -0.3,   -0.7,   -0.5,   -0.3,   -0.5,   -0.5,   -0.3,   -0.7,   -1.5,   -1.5,   -1.1,  999.0,  999.0,  999.0,  999.0,  999.0,  999.0,  999.0,  999.0,  999.0,  999.0,  999.0,  999.0,  999.0,  999.0,  999.0,  999.0,  999.0,  999.0,  999.0,   -1.7,   -1.5,   -1.8,  999.0
2004/10/20 03:30,   -2.6,   -2.6,   -2.6,   -2.6,   -3.1,   -3.1,   -2.9,   -2.8,   -2.6,   -2.8,   -2.7,   -2.5,   -2.9,   -2.9,   -2.6,   -2.7,   -2.5,   -2.7,   -2.5,   -2.5,   -2.3,   -2.4,   -2.2,   -2.2,   -2.1,   -2.5,   -2.6,   -2.3,   -2.2,   -1.3,   -1.1,   -0.8,   -0.5,   -0.5,   -0.3,   -0.3,   -0.8,   -1.0,   -0.8,   -0.3,   -1.3,   -0.9,   -0.5,  999.0,   -1.2,  999.0,  999.0,  999.0,  999.0,  999.0,  999.0,  999.0,  999.0,  999.0,  999.0,  999.0,  999.0,  999.0,  999.0,  999.0,  999.0,  999.0,  999.0,  999.0,  999.0,  999.0,  999.0,   -1.7,  999.0,   -2.0
2004/10/20 03:40,   -2.5,   -2.4,   -2.2,   -2.4,   -2.4,   -2.5,   -2.1,   -2.1,   -2.6,   -2.5,   -2.6,   -2.3,   -2.4,   -2.1,   -2.1,   -2.0,   -1.8,   -1.8,   -1.6,   -1.3,   -1.3,   -1.1,   -0.9,   -0.7,   -0.8,   -1.2,   -1.2,   -0.8,   -0.6,   -0.6,   -0.4,   -0.4,   -0.3,   -0.2,   -0.2,   -0.3,   -0.3,   -0.2,   -0.2,  999.0,  999.0,  999.0,  999.0,  999.0,  999.0,  999.0,  999.0,  999.0,  999.0,  999.0,  999.0,  999.0,  999.0,  999.0,  999.0,  999.0,  999.0,  999.0,  999.0,  999.0,  999.0,  999.0,  999.0,  999.0,  999.0,  999.0,  999.0,  999.0,   -2.2,   -2.1
2004/10/20 03:50,   -1.5,   -1.4,   -1.4,   -1.5,   -1.8,   -2.2,   -2.1,   -2.0,   -1.9,   -1.9,   -2.0,   -1.9,   -1.8,   -1.8,   -1.8,   -1.7,   -1.6,   -1.7,   -1.8,   -1.8,   -1.7,   -1.1,   -1.1,   -1.2,   -1.1,   -1.1,   -0.7,   -0.6,   -0.5,   -0.4,   -0.5,   -0.3,   -0.2,   -0.5,   -0.4,   -0.4,   -0.3,   -0.3,   -0.5,   -0.8,   -1.1,  999.0,  999.0,  999.0,  999.0,  999.0,  999.0,  999.0,  999.0,  999.0,  999.0,  999.0,  999.0,  999.0,  999.0,  999.0,  999.0,  999.0,  999.0,  999.0,  999.0,  999.0,  999.0,   -1.6,   -1.5,   -1.8,   -1.7,   -2.1,   -2.4,   -2.4
2004/10/20 04:00,   -3.0,   -2.9,   -2.1,   -1.8,  999.0,   -1.4,   -1.6,   -1.7,   -1.9,   -1.8,   -1.5,   -1.4,   -1.2,   -0.9,   -0.9,   -0.6,   -0.4,   -0.4,   -0.4,   -0.8,   -1.1,   -1.1,   -1.1,   -1.2,   -1.1,   -0.8,   -0.5,   -0.3,   -0.1,   -0.2,   -0.7,   -0.1,   -0.4,   -0.3,   -0.3,   -0.5,   -0.3,    0.2,   -0.3,   -0.4,   -0.1,   -1.0,  999.0,  999.0,  999.0,  999.0,  999.0,  999.0,  999.0,  999.0,  999.0,  999.0,  999.0,  999.0,  999.0,  999.0,  999.0,  999.0,  999.0,  999.0,  999.0,  999.0,  999.0,   -1.7,   -1.6,   -1.4,   -1.2,   -1.4,   -1.6,   -1.8
2004/10/20 04:10,   -1.2,   -1.0,   -0.9,   -1.7,   -2.1,   -2.7,   -2.8,   -0.6,   -2.1,   -3.5,   -3.1,   -2.7,   -2.7,   -2.7,   -2.5,   -2.4,   -2.3,   -2.2,   -2.0,   -1.9,   -1.9,   -1.8,   -1.7,   -1.7,   -1.4,   -1.6,   -1.1,   -0.9,   -0.7,   -0.9,   -0.7,   -1.1,   -0.4,   -0.7,   -0.6,   -0.6,   -0.6,   -0.5,   -0.2,   -0.4,   -0.2,   -0.6,   -0.7,   -0.8,  999.0,  999.0,  999.0,  999.0,  999.0,  999.0,  999.0,  999.0,  999.0,  999.0,  999.0,  999.0,  999.0,  999.0,  999.0,  999.0,   -0.6,  999.0,   -1.3,   -1.3,   -1.1,   -1.3,   -1.5,   -1.4,   -1.6,   -1.9
2004/10/20 04:20,   -3.5,   -3.4,   -3.9,   -2.9,   -2.8,   -2.8,   -2.9,   -2.7,   -2.8,   -2.7,   -2.8,   -2.7,   -2.6,   -2.7,   -2.7,   -2.6,   -2.6,   -2.4,   -2.3,   -2.2,   -2.1,   -1.9,   -1.7,   -1.5,   -1.6,   -1.5,   -1.4,   -1.3,   -0.8,   -0.5,   -0.4,   -0.3,   -0.4,   -0.3,   -0.2,   -0.1,   -0.3,   -0.2,    0.1,   -0.2,    0.0,  999.0,   -0.9,  999.0,  999.0,  999.0,  999.0,  999.0,  999.0,  999.0,  999.0,  999.0,  999.0,  999.0,  999.0,  999.0,  999.0,  999.0,  999.0,  999.0,  999.0,  999.0,   -1.6,   -1.8,   -2.1,   -2.2,   -2.3,   -2.1,   -2.2,   -2.3
2004/10/20 04:30,   -2.6,   -2.7,   -2.4,   -2.4,   -2.6,   -2.5,   -2.5,   -2.5,   -2.4,   -2.4,   -2.3,   -2.3,   -2.3,   -2.2,   -2.2,   -2.1,   -2.1,   -2.1,   -2.0,   -1.8,   -1.6,   -1.5,   -1.2,   -1.1,   -0.9,   -0.5,   -0.4,   -0.3,   -0.4,   -0.3,    0.1,    0.1,   -0.2,  999.0,   -0.7,   -0.3,  999.0,   -0.2,  999.0,   -0.6,  999.0,   -1.0,  999.0,  999.0,  999.0,  999.0,  999.0,  999.0,  999.0,  999.0,  999.0,  999.0,  999.0,  999.0,  999.0,   -0.9,  999.0,  999.0,  999.0,  999.0,  999.0,  999.0,  999.0,  999.0,  999.0,  999.0,  999.0,  999.0,  999.0,  999.0
2004/10/20 04:40,   -2.7,   -2.6,  999.0,   -2.9,   -2.4,   -2.3,   -2.2,   -2.2,   -2.4,   -2.1,   -2.1,   -1.8,   -1.8,   -1.6,   -1.6,   -1.3,   -1.0,   -0.9,   -0.8,   -0.6,   -0.6,   -0.4,   -0.3,   -0.2,   -0.2,   -0.1,   -0.2,   -0.3,   -0.3,   -0.2,   -0.4,   -0.8,   -0.4,   -0.2,   -0.1,   -0.3,   -0.1,   -0.2,   -0.0,   -0.7,  999.0,  999.0,  999.0,  999.0,  999.0,  999.0,  999.0,  999.0,  999.0,  999.0,  999.0,  999.0,  999.0,  999.0,  999.0,  999.0,  999.0,  999.0,  999.0,  999.0,  999.0,  999.0,  999.0,  999.0,  999.0,  999.0,  999.0,   -2.8,   -2.7,   -2.4
2004/10/20 04:50,   -3.4,   -3.0,   -3.0,   -2.5,   -1.9,   -1.6,   -1.8,   -1.6,   -1.5,   -1.8,   -2.0,   -1.8,   -1.5,   -1.3,   -1.7,   -1.6,   -1.9,   -1.8,   -1.6,   -1.4,   -1.4,   -1.2,   -1.1,   -1.2,   -1.0,   -1.0,   -1.1,   -1.3,   -1.4,   -1.4,   -1.2,   -0.9,   -0.8,   -0.7,   -0.4,   -1.1,   -0.9,   -1.0,   -0.9,   -0.9,   -0.6,   -1.1,  999.0,  999.0,  999.0,  999.0,  999.0,  999.0,  999.0,  999.0,  999.0,  999.0,  999.0,  999.0,  999.0,  999.0,  999.0,  999.0,  999.0,  999.0,  999.0,  999.0,  999.0,  999.0,  999.0,  999.0,   -2.2,   -2.5,   -2.3,   -2.4
2004/10/20 05:00,   -3.3,   -3.4,   -3.4,   -2.8,   -2.5,   -2.5,   -2.4,   -2.9,   -2.8,   -2.6,   -2.2,   -2.3,   -2.2,   -1.9,   -1.8,   -1.8,   -1.6,   -1.5,   -1.5,   -1.4,   -1.2,   -1.2,   -0.9,   -0.8,   -0.5,   -0.4,   -0.3,   -0.2,   -0.3,   -0.2,   -0.4,   -0.2,   -0.0,   -0.6,   -0.6,   -0.4,  999.0,    0.3,    0.0,  999.0,  999.0,  999.0,  999.0,  999.0,  999.0,  999.0,  999.0,  999.0,  999.0,  999.0,  999.0,  999.0,  999.0,  999.0,  999.0,  999.0,  999.0,  999.0,  999.0,  999.0,  999.0,  999.0,  999.0,  999.0,   -1.7,   -2.2,   -2.4,   -2.4,   -2.5,   -2.6
2004/10/20 05:10,   -2.8,   -2.6,  999.0,   -2.4,   -2.1,   -1.9,   -1.9,   -1.7,   -1.6,   -1.4,   -1.2,   -1.1,   -1.1,   -1.0,   -0.7,   -0.6,   -0.6,   -0.4,   -0.3,   -0.3,   -0.4,   -0.3,   -0.1,   -0.1,   -0.1,   -0.4,   -0.2,   -0.4,  999.0,   -0.4,  999.0,   -0.5,  999.0,  999.0,  999.0,  999.0,   -0.7,   -0.8,  999.0,  999.0,  999.0,  999.0,  999.0,  999.0,  999.0,  999.0,  999.0,  999.0,  999.0,  999.0,  999.0,  999.0,  999.0,  999.0,  999.0,  999.0,  999.0,   -0.4,   -0.5,  999.0,  999.0,  999.0,  999.0,   -2.2,   -1.8,   -2.2,   -2.3,   -2.4,   -2.4,   -2.5
2004/10/20 05:20,   -1.5,   -1.0,   -0.5,   -0.8,   -1.0,   -0.8,   -0.9,   -0.6,   -0.7,   -0.9,   -1.1,   -0.7,   -0.6,   -0.7,   -0.8,   -0.8,   -1.0,   -0.6,   -0.6,   -0.5,   -0.5,   -0.7,   -0.5,   -0.3,   -0.2,   -0.2,    0.1,    0.2,   -0.0,    0.1,   -0.5,   -0.2,   -0.5,   -0.6,   -0.6,  999.0,  999.0,  999.0,   -0.6,  999.0,   -0.7,  999.0,  999.0,  999.0,  999.0,  999.0,  999.0,  999.0,  999.0,  999.0,  999.0,  999.0,  999.0,  999.0,  999.0,  999.0,   -0.2,  999.0,  999.0,  999.0,  999.0,  999.0,   -1.7,   -1.8,   -2.2,   -2.0,   -1.6,   -1.9,   -2.1,   -2.2
2004/10/20 05:30,   -1.0,   -1.2,   -1.4,   -1.4,   -1.5,   -1.9,   -2.2,   -1.9,   -1.9,   -2.0,   -2.0,   -1.9,   -1.9,   -1.9,   -0.9,   -0.8,   -0.8,   -0.5,   -0.5,   -0.2,   -0.1,   -0.2,   -0.2,   -0.2,   -0.3,   -0.2,   -0.1,   -0.3,   -0.2,   -0.0,   -0.3,   -0.3,  999.0,   -0.5,  999.0,  999.0,  999.0,  999.0,  999.0,  999.0,  999.0,  999.0,   -0.8,  999.0,  999.0,  999.0,  999.0,  999.0,  999.0,  999.0,  999.0,  999.0,  999.0,  999.0,  999.0,  999.0,  999.0,  999.0,  999.0,  999.0,  999.0,  999.0,  999.0,   -1.2,   -1.4,   -1.4,   -1.4,   -1.5,   -1.6,   -1.6
2004/10/20 05:40,   -2.0,   -1.9,   -1.8,   -1.7,   -1.7,   -1.5,   -1.5,   -1.5,   -1.3,   -1.2,   -1.1,   -1.1,   -0.9,   -1.0,   -0.7,   -0.6,   -0.5,   -0.4,   -0.2,   -0.1,   -0.0,   -0.1,   -0.1,   -0.1,   -0.1,   -0.2,   -0.2,   -0.1,   -0.2,   -0.2,   -0.1,   -0.3,   -0.6,   -0.6,   -0.5,   -0.4,   -0.4,  999.0,   -0.8,   -0.5,  999.0,  999.0,  999.0,   -1.2,  999.0,  999.0,  999.0,    0.2,  999.0,  999.0,  999.0,  999.0,  999.0,  999.0,   -0.1,   -1.7,  999.0,   -1.7,   -2.0,   -2.2,   -2.5,   -2.4,   -2.5,   -2.2,   -2.3,   -2.2,   -2.1,   -2.0,   -1.9,   -2.0
2004/10/20 05:50,   -1.3,   -2.0,   -1.9,   -2.5,   -2.6,   -1.6,   -1.6,   -1.7,   -1.4,   -2.6,   -2.6,   -3.2,   -2.7,   -2.7,   -4.5,   -2.4,   -3.2,   -3.2,   -3.3,   -3.8,   -4.2,   -4.4,   -4.3,   -4.2,   -4.0,   -3.4,   -3.9,   -4.1,   -3.8,   -3.6,   -2.8,   -3.8,   -2.8,   -3.6,   -3.3,   -2.4,   -2.0,   -2.2,   -2.1,   -1.6,   -2.3,   -2.5,   -2.7,   -2.4,   -2.6,   -2.4,   -2.9,   -3.0,   -2.9,   -2.9,   -3.1,   -3.3,   -3.1,   -2.7,   -2.5,   -2.3,   -2.0,   -1.9,   -1.7,   -1.5,   -1.5,   -1.5,   -1.4,   -1.3,   -1.4,   -1.5,   -1.7,   -1.8,   -1.9,   -1.9
2004/10/20 06:00,   -5.6,   -5.5,   -5.5,   -5.4,   -5.5,   -5.6,   -6.0,   -5.5,   -5.4,   -5.8,   -5.9,   -5.9,   -5.9,   -6.0,   -5.7,   -5.9,   -6.0,   -6.0,   -6.0,   -5.8,   -5.9,   -5.8,   -5.9,   -5.8,   -5.8,   -5.8,   -5.8,   -5.7,   -5.8,   -5.8,   -5.8,   -5.7,   -5.7,   -5.7,   -5.6,   -5.1,   -4.7,   -3.4,   -2.5,   -2.2,   -2.1,   -2.2,   -2.0,   -2.0,   -1.8,   -2.0,   -1.8,   -1.8,   -1.6,   -1.5,   -1.4,   -1.1,   -1.0,   -0.9,   -0.9,   -0.8,   -0.8,   -0.7,   -0.9,   -0.9,   -1.1,   -0.8,   -0.7,   -0.7,   -0.6,   -0.6,   -0.6,   -0.6,   -0.7,   -0.6
2004/10/20 06:10,   -6.1,   -5.6,   -5.6,   -5.4,   -5.4,   -5.4,   -5.2,   -5.2,   -5.1,   -5.1,   -5.1,   -5.1,   -5.0,   -4.9,   -4.8,   -4.7,   -4.7,   -4.6,   -4.6,   -4.5,   -4.4,   -4.9,   -6.1,   -4.7,   -4.2,   -4.3,   -4.4,   -4.5,   -4.4,   -4.6,   -4.0,   -4.3,   -4.1,   -4.1,   -3.9,   -3.5,   -3.2,   -2.7,   -2.3,   -2.0,   -1.8,   -1.6,   -1.2,   -2.4,   -2.8,   -2.5,   -2.5,   -2.1,   -1.8,   -1.5,   -1.3,   -1.1,   -1.0,   -0.9,   -0.4,   -0.9,   -0.4,   -1.7,   -1.5,   -1.4,   -1.3,   -1.3,   -1.8,   -1.6,   -2.0,   -2.0,   -2.1,  999.0,   -2.4,   -2.8
2004/10/20 06:20,   -2.6,   -2.4,   -1.8,   -1.8,   -2.0,   -1.6,   -1.6,   -1.4,   -1.6,   -1.2,   -0.7,   -0.7,   -0.6,   -0.8,   -0.9,   -0.3,   -0.2,   -0.1,   -0.1,   -0.3,   -0.3,   -0.0,   -0.2,   -0.7,   -0.2,   -0.5,   -0.6,   -0.8,   -0.2,   -0.1,   -0.2,   -1.4,   -0.6,   -0.9,    0.3,    0.8,   -0.0,   -0.0,   -0.5,   -0.6,   -0.6,   -0.7,  999.0,  999.0,  999.0,  999.0,  999.0,  999.0,  999.0,  999.0,   -0.9,   -0.9,   -0.5,  999.0,  999.0,  999.0,  999.0,  999.0,  999.0,  999.0,   -2.1,   -1.9,   -2.0,   -2.1,   -2.3,   -2.7,   -2.8,   -2.9,   -3.0,   -3.0
2004/10/20 06:30,   -0.8,   -1.0,   -0.3,   -0.2,   -0.1,   -0.6,   -0.6,   -0.0,   -0.1,   -0.6,   -0.5,   -0.3,   -0.3,   -0.3,   -0.2,   -0.1,   -0.2,   -0.3,   -0.3,   -0.3,   -0.1,   -0.1,   -0.1,    0.0,   -0.3,   -0.5,   -0.3,   -0.1,   -0.1,   -0.1,    0.1,   -0.2,   -0.3,  999.0,  999.0,  999.0,  999.0,  999.0,  999.0,  999.0,  999.0,  999.0,  999.0,  999.0,  999.0,  999.0,  999.0,  999.0,  999.0,  999.0,   -3.3,   -2.0,   -3.0,   -2.8,   -2.6,   -2.5,   -2.5,   -2.4,   -2.3,   -2.4,   -2.2,   -2.5,   -2.4,   -2.5,   -2.5,   -2.6,   -2.6,   -2.7,   -2.7,   -2.7
2004/10/20 06:40,   -0.0,    0.0,   -0.2,    0.2,   -0.0,   -0.3,   -0.2,   -0.0,   -0.1,   -0.0,   -0.3,   -0.2,   -0.2,   -0.6,   -0.5,   -0.3,   -0.2,   -0.1,   -0.2,   -0.5,   -0.4,   -0.5,   -0.1,   -0.3,   -0.1,   -0.2,  999.0,   -0.2,   -0.3,   -0.4,  999.0,  999.0,   -0.8,   -0.2,   -0.7,   -0.2,  999.0,  999.0,  999.0,  999.0,    0.1,  999.0,   -0.6,  999.0,  999.0,  999.0,  999.0,  999.0,  999.0,  999.0,   -1.9,   -2.1,   -2.0,   -2.2,   -2.2,   -2.4,   -2.4,   -2.4,   -2.4,   -2.7,   -2.6,   -2.7,   -2.4,   -2.5,   -2.5,   -2.4,   -2.4,   -2.4,   -2.4,   -2.4
2004/10/20 06:50,   -0.3,   -0.3,   -0.1,   -0.1,   -0.0,   -0.1,   -0.3,   -0.1,   -0.2,   -0.2,   -0.1,   -0.1,   -0.1,   -0.2,   -0.3,   -0.2,   -0.2,   -0.2,   -0.6,   -0.2,   -0.2,   -0.2,   -0.0,   -0.1,   -0.3,    0.2,   -0.2,   -0.2,   -0.2,   -0.1,   -0.2,   -0.4,   -0.2,   -0.3,   -0.1,   -0.2,    0.2,    0.1,   -0.1,    0.3,   -0.3,    0.6,    0.3,  999.0,   -0.6,  999.0,  999.0,  999.0,  999.0,   -2.0,   -2.0,   -1.5,   -1.3,   -2.0,   -2.3,   -2.3,   -2.4,   -2.3,   -2.5,   -2.3,   -2.2,   -2.2,   -2.2,   -2.1,   -2.1,   -2.0,   -2.0,   -2.1,   -2.0,   -2.0
2004/10/20 07:00,   -1.8,   -1.8,  999.0,  999.0,    0.1,   -1.6,   -1.7,   -1.8,  999.0,   -1.7,   -2.8,   -2.8,   -2.8,   -2.9,   -2.9,   -3.0,   -2.8,   -3.0,   -1.9,   -3.0,   -3.0,   -2.7,   -2.4,   -2.2,   -1.6,   -1.3,   -1.3,   -0.4,  999.0,   -0.2,   -0.3,  999.0,  999.0,    0.0,  999.0,    0.9,    0.4,    0.5,  999.0,  999.0,   -0.5,  999.0,  999.0,  999.0,  999.0,  999.0,  999.0,  999.0,  999.0,  999.0,  999.0,  999.0,  999.0,  999.0,  999.0,  999.0,  999.0,  999.0,  999.0,   -2.2,   -2.1,   -1.9,   -1.9,   -1.9,   -2.0,   -2.1,   -2.2,   -2.2,   -2.1,   -2.1
2004/10/20 07:10,   -2.1,   -1.7,   -1.5,   -1.3,   -2.6,   -2.7,   -2.6,   -2.8,   -2.6,   -2.5,   -2.4,   -2.3,   -2.4,   -2.4,   -2.3,   -2.2,   -2.3,   -2.3,   -2.0,   -1.8,   -1.5,   -1.3,   -1.1,   -0.8,   -0.9,   -0.8,   -0.9,   -0.6,   -0.3,   -0.2,   -0.2,   -0.2,    0.1,    0.3,   -0.2,    0.0,    0.1,   -0.0,   -0.1,    0.1,    0.5,   -0.5,    0.1,    0.1,    0.2,  999.0,    0.4,   -0.3,  999.0,   -1.3,  999.0,  999.0,  999.0,  999.0,  999.0,   -2.8,   -2.6,   -2.6,   -2.5,   -2.7,   -2.6,   -2.6,   -2.6,   -2.6,   -2.5,   -2.4,   -2.3,   -2.2,   -2.2,   -2.1
2004/10/20 07:20,   -2.2,   -2.0,   -1.8,  999.0,   -2.8,   -2.4,   -1.2,   -1.6,   -1.2,   -1.2,   -1.0,   -0.9,   -0.9,   -0.6,   -0.4,   -0.3,   -0.4,   -0.7,   -0.0,   -0.4,   -0.3,   -0.2,   -0.2,   -0.3,   -0.1,   -0.2,   -0.2,   -0.0,    0.0,    0.1,    0.1,   -0.2,   -0.2,   -0.1,    0.0,    0.0,    0.4,    0.1,    0.7,    0.5,    0.6,    0.9,    0.8,  999.0,  999.0,  999.0,  999.0,  999.0,   -3.7,   -3.1,   -2.8,   -2.8,   -2.5,   -2.2,   -2.1,   -2.2,   -2.4,   -2.3,   -2.3,   -2.4,   -2.3,   -2.4,   -2.5,   -2.4,   -2.3,   -2.5,   -2.3,   -2.3,   -2.2,   -2.1
2004/10/20 07:30,   -0.8,   -0.6,   -0.6,   -0.4,   -0.2,   -0.1,   -0.4,   -0.6,   -0.5,   -0.6,   -0.4,   -0.3,   -0.2,   -0.2,   -0.3,   -0.4,   -0.2,   -0.3,   -0.6,   -0.6,   -0.5,   -0.4,   -0.2,   -0.1,    0.1,   -0.3,   -0.3,   -0.3,   -0.2,   -0.2,   -0.3,   -0.4,   -0.2,   -0.3,    0.3,    0.2,    0.3,    0.6,   -0.1,   -0.0,   -0.3,    0.1,    0.0,  999.0,   -1.1,  999.0,  999.0,  999.0,  999.0,  999.0,   -2.2,   -2.7,   -2.7,   -2.5,   -2.5,   -2.3,   -2.4,   -2.5,   -2.5,   -2.5,   -2.6,   -2.6,   -2.6,   -2.6,   -2.5,   -2.4,   -2.4,   -2.3,   -2.3,   -2.3
2004/10/20 07:40,   -0.6,   -0.3,   -0.1,   -0.1,   -0.1,   -0.3,   -0.4,   -0.1,   -0.3,   -0.2,   -0.1,    0.0,   -0.0,    0.0,   -0.0,   -0.1,   -0.1,   -0.2,   -0.3,   -0.4,   -0.5,   -0.4,   -0.4,   -0.3,   -0.4,   -0.2,   -0.2,   -0.2,   -0.4,   -0.5,   -0.6,   -0.3,    0.1,   -0.5,   -0.3,   -1.0,   -0.4,    0.4,   -0.8,   -0.7,   -0.1,   -0.2,   -0.6,   -0.6,   -1.0,  999.0,   -2.3,   -2.0,   -2.1,   -2.5,   -2.5,   -2.3,   -2.1,   -2.4,   -2.3,   -2.2,   -2.2,   -2.3,   -2.6,   -2.7,   -2.8,   -2.7,   -2.7,   -2.6,   -2.7,   -2.6,   -2.6,   -2.6,   -2.6,   -2.6
2004/10/20 07:50,   -0.1,   -0.1,   -0.8,   -0.2,   -0.3,   -0.1,   -0.2,   -0.3,   -0.2,   -0.2,   -0.3,   -0.1,   -0.1,   -0.1,   -0.3,   -0.1,   -0.4,   -0.3,   -0.2,   -0.3,   -0.3,   -0.5,   -0.6,   -0.2,   -0.1,   -0.4,   -0.4,   -0.3,   -0.2,   -0.6,   -0.8,   -0.9,   -0.6,   -0.5,   -0.4,   -0.3,   -0.5,   -0.3,   -0.2,   -0.0,   -0.2,   -0.9,   -1.7,   -1.5,   -2.3,   -2.3,   -2.6,   -2.5,   -2.5,   -2.3,   -2.1,   -2.0,   -1.9,   -1.9,   -2.0,   -2.1,   -2.4,   -2.5,   -2.6,   -2.5,   -2.6,   -2.6,   -2.5,   -2.6,   -2.6,   -2.5,   -2.5,   -2.4,   -2.4,   -2.4
2004/10/20 08:00,   -4.6,   -4.6,   -4.4,   -4.2,   -4.1,   -4.0,   -4.1,   -3.9,   -3.8,   -3.7,   -3.7,   -3.5,   -3.7,   -3.6,   -3.6,   -3.4,   -3.3,   -3.3,   -3.3,   -3.4,   -3.3,   -3.2,   -3.1,   -3.0,   -2.7,   -2.5,   -2.4,   -2.4,   -2.2,   -2.0,   -1.6,   -1.7,   -1.2,   -1.4,   -0.7,   -0.6,   -0.8,   -1.0,   -0.8,   -0.8,   -1.8,   -0.4,   -1.8,   -1.5,   -1.5,   -2.2,   -2.1,   -1.8,   -2.1,   -1.8,   -2.0,   -1.6,   -1.8,   -2.0,   -2.3,   -2.4,   -2.5,   -2.6,   -2.6,   -2.6,   -2.5,   -2.5,   -2.5,   -2.5,   -2.5,   -2.4,   -2.4,   -2.4,   -2.4,   -2.4
2004/10/20 08:10,  999.0,  999.0,  999.0,   -1.9,   -2.6,   -2.4,   -2.2,   -2.0,   -2.1,   -1.6,   -1.5,   -1.2,   -0.2,   -0.4,   -0.6,   -0.8,   -0.5,   -0.5,   -0.7,   -0.7,   -1.2,   -0.7,   -0.9,   -0.8,   -0.7,   -0.8,   -0.7,   -0.4,    0.1,   -1.6,   -1.7,   -0.0,   -1.6,   -1.3,   -1.6,   -1.5,   -0.9,   -2.2,   -1.3,   -2.1,   -2.1,   -2.0,   -2.6,   -2.1,   -2.0,   -1.6,   -2.0,   -1.9,   -1.9,  999.0,   -1.9,   -1.8,   -1.9,   -1.9,   -2.0,   -2.0,   -2.0,   -2.1,   -2.1,   -2.1,   -2.2,   -2.3,   -2.3,   -2.4,   -2.4,   -2.5,   -2.5,   -2.5,   -2.5,   -2.5
2004/10/20 08:20,   -1.1,   -1.1,   -0.6,   -0.5,   -1.7,   -1.7,   -1.2,   -1.2,   -1.0,   -0.8,   -0.7,   -1.0,   -0.6,   -0.3,   -0.3,   -0.3,   -0.2,   -0.3,   -0.4,   -0.4,   -0.4,   -0.4,   -0.3,   -0.3,   -0.2,   -0.4,   -0.2,   -0.3,   -0.5,   -0.5,   -0.0,    0.0,   -0.6,   -0.1,   -0.2,   -0.5,   -0.3,   -0.2,   -0.4,   -0.5,   -0.6,   -0.5,   -0.7,   -1.0,   -1.3,   -1.8,   -2.1,   -1.8,   -1.8,   -2.2,   -2.2,   -2.3,   -2.3,   -2.2,   -2.2,   -2.2,   -2.2,   -2.3,   -2.3,   -2.4,   -2.4,   -2.3,   -2.5,   -2.7,   -2.7,   -2.6,   -2.6,   -2.7,   -2.6,   -2.5
2004/10/20 08:30,   -0.5,   -0.5,   -0.2,   -0.2,   -0.1,   -0.2,   -0.4,   -0.1,   -0.3,   -0.1,   -0.3,   -0.2,   -0.1,   -0.3,   -0.1,   -0.6,   -0.8,   -0.8,   -0.4,   -0.6,   -0.3,   -0.6,   -0.5,   -0.5,   -0.6,   -0.6,   -0.7,   -0.6,   -0.6,   -0.9,   -1.0,   -0.9,   -0.2,   -0.7,   -0.6,   -0.5,   -0.5,   -0.4,   -0.5,   -0.3,  999.0,   -0.9,   -0.9,  999.0,   -1.1,  999.0,   -2.1,   -2.3,   -2.4,   -2.3,   -2.1,   -2.1,   -2.2,   -2.3,   -2.3,   -2.2,   -2.1,   -2.2,   -2.2,   -2.2,   -2.3,   -2.3,   -2.3,   -2.4,   -2.4,   -2.4,   -2.4,   -2.4,   -2.4,   -2.5
2004/10/20 08:40,   -1.0,   -1.1,   -0.6,   -0.5,   -0.6,   -0.5,   -0.6,   -0.6,   -0.4,   -0.5,   -0.4,    0.0,    0.0,   -0.2,   -0.1,   -0.2,   -0.3,   -0.4,   -0.4,   -0.2,   -0.2,   -0.4,   -0.2,   -1.3,   -1.3,   -1.3,   -1.0,   -0.8,   -1.2,   -1.3,   -1.0,   -0.8,   -0.9,   -1.0,   -0.8,   -0.7,   -0.9,   -1.0,  999.0,  999.0,   -1.7,   -1.6,  999.0,   -1.8,   -1.5,   -1.7,   -1.8,   -1.9,   -2.1,   -2.1,   -2.3,   -2.3,   -2.3,   -2.4,   -2.4,   -2.4,   -2.3,   -2.3,   -2.4,   -2.3,   -2.4,   -2.4,   -2.4,   -2.4,   -2.4,   -2.5,   -2.5,   -2.5,   -2.6,   -2.6
2004/10/20 08:50,  999.0,   -3.8,   -4.0,   -3.8,   -4.4,   -4.5,   -4.2,   -4.1,   -3.7,   -2.7,   -3.0,   -3.1,   -3.5,   -3.6,   -2.0,   -3.8,   -3.6,   -3.4,   -3.4,   -3.2,   -3.2,   -3.2,   -3.0,   -2.2,   -2.3,   -2.5,   -2.3,   -2.1,   -2.0,   -2.7,   -2.2,   -2.3,   -2.6,   -2.8,   -2.2,   -2.2,   -1.8,   -1.7,   -1.8,   -1.8,   -1.4,   -1.4,   -1.9,   -1.9,   -2.1,   -2.3,   -2.2,   -2.4,   -2.3,   -2.2,   -2.2,   -2.3,   -2.3,   -2.3,   -2.3,   -2.2,   -2.3,   -2.2,   -2.3,   -2.2,   -2.2,   -2.2,   -2.2,   -2.3,   -2.3,   -2.3,   -2.3,   -2.4,   -2.4,   -2.5
2004/10/20 09:00,  999.0,   -4.7,   -4.9,   -4.4,   -5.0,   -5.0,   -4.4,   -4.5,   -4.1,   -4.3,   -4.4,   -4.2,   -4.1,   -4.1,   -4.3,   -4.0,   -3.9,   -4.0,   -3.8,   -3.7,   -3.4,   -3.7,   -3.5,   -3.2,   -3.9,   -3.4,   -3.2,   -2.5,   -2.1,   -1.9,   -3.1,   -2.9,   -2.5,   -2.5,   -2.7,   -2.8,   -1.7,   -1.4,   -1.1,   -1.9,   -2.8,   -2.5,   -2.2,   -2.1,   -1.9,   -2.0,   -2.0,   -2.7,   -2.6,   -2.4,   -2.4,   -2.6,   -2.6,   -2.3,   -2.2,   -2.4,   -2.4,   -2.3,   -2.3,   -2.3,   -2.3,   -2.3,   -2.3,   -2.3,   -2.2,   -2.2,   -2.2,   -2.2,   -2.2,   -2.3
2004/10/20 09:10,   -5.7,   -5.7,   -5.6,   -5.5,   -5.3,   -4.2,   -4.4,   -5.0,   -4.9,   -5.1,   -5.1,   -5.2,   -5.2,   -5.2,   -5.0,   -5.1,   -5.2,   -5.6,   -5.5,   -5.8,   -5.3,   -5.3,   -5.8,   -6.0,   -5.4,   -5.5,   -5.6,   -5.5,   -4.9,   -5.1,   -4.5,   -5.3,   -5.3,   -4.8,   -4.1,   -3.2,   -2.6,   -2.6,   -2.3,   -2.5,   -2.4,   -2.2,   -2.2,   -2.0,   -2.1,   -2.2,   -2.0,   -1.9,   -1.8,   -2.1,   -2.3,   -2.3,   -2.4,   -2.3,   -2.4,   -2.4,   -2.4,   -2.3,   -2.3,   -2.2,   -2.1,   -2.1,   -2.0,   -2.0,   -2.1,   -2.1,   -2.1,   -2.1,   -2.1,   -2.3
2004/10/20 09:20,   -4.6,   -4.7,   -4.7,   -5.4,   -5.6,   -5.2,   -4.9,   -5.7,   -5.7,   -5.7,   -5.7,   -5.7,   -5.7,   -5.7,   -5.8,   -5.7,   -5.7,   -5.9,   -5.7,   -5.7,   -5.8,   -5.7,   -5.8,   -5.8,   -5.8,   -5.8,   -5.9,   -5.9,   -5.9,   -5.8,   -5.5,   -5.6,   -5.0,   -4.6,   -3.5,   -2.9,   -2.6,   -2.7,   -2.6,   -2.4,   -2.4,   -2.1,   -2.2,   -2.2,   -2.2,   -2.2,   -2.3,   -2.3,   -2.3,   -2.4,   -2.5,   -2.6,   -2.5,   -2.5,   -2.5,   -2.5,   -2.5,   -2.5,   -2.4,   -2.4,   -2.4,   -2.3,   -2.3,   -2.4,   -2.4,   -2.4,   -2.5,   -2.5,   -2.6,   -2.6
2004/10/20 09:30,   -6.5,   -6.6,   -6.3,   -6.2,   -6.2,   -6.4,   -6.4,   -6.4,   -6.4,   -6.4,   -6.5,   -6.8,   -6.8,   -6.9,   -6.7,   -6.8,   -6.8,   -6.9,   -7.0,   -7.0,   -7.1,   -7.1,   -7.3,   -7.3,   -7.6,   -7.7,   -7.7,   -7.8,   -7.9,   -8.0,   -7.8,   -7.6,   -6.8,   -5.5,   -4.3,   -3.5,   -3.1,   -2.9,   -2.7,   -2.5,   -2.2,   -2.1,   -2.2,   -2.1,   -2.1,   -2.0,   -2.0,   -2.1,   -1.9,   -2.0,   -2.1,   -2.1,   -2.1,   -2.2,   -2.2,   -2.2,   -2.2,   -2.3,   -2.3,   -2.3,   -2.4,   -2.4,   -2.4,   -2.5,   -2.5,   -2.6,   -2.6,   -2.6,   -2.7,   -2.7
2004/10/20 09:40,   -6.7,   -6.7,   -6.5,   -6.5,   -6.5,   -6.6,   -6.7,   -6.8,   -6.9,   -7.0,   -7.0,   -7.1,   -7.1,   -7.1,   -7.2,   -7.2,   -7.2,   -7.3,   -7.4,   -7.4,   -7.5,   -7.5,   -7.6,   -7.5,   -7.6,   -7.6,   -7.4,   -7.6,   -7.4,   -7.6,   -7.4,   -7.5,   -7.2,   -6.0,   -4.8,   -3.9,   -3.4,   -3.0,   -2.6,   -2.4,   -2.3,   -2.2,   -2.1,   -2.2,   -1.9,   -2.1,   -2.0,   -2.1,   -2.0,   -2.1,   -2.2,   -2.2,   -2.2,   -2.2,   -2.2,   -2.2,   -2.2,   -2.2,   -2.3,   -2.4,   -2.3,   -2.4,   -2.5,   -2.5,   -2.4,   -2.5,   -2.5,   -2.5,   -2.5,   -2.5
2004/10/20 09:50,   -6.3,   -6.3,   -6.3,   -6.3,   -6.3,   -6.5,   -6.6,   -6.6,   -6.6,   -6.7,   -6.7,   -6.8,   -6.8,   -6.8,   -6.9,   -7.0,   -7.0,   -7.0,   -7.0,   -7.1,   -7.1,   -7.1,   -7.0,   -7.0,   -7.1,   -7.1,   -7.0,   -7.0,   -7.0,   -7.2,   -7.0,   -6.7,   -6.7,   -6.4,   -5.4,   -4.0,   -3.3,   -2.8,   -2.6,   -2.5,   -2.5,   -2.6,   -2.5,   -2.5,   -2.6,   -2.6,   -2.5,   -2.5,   -2.4,   -2.4,   -2.3,   -2.2,   -2.3,   -2.3,   -2.3,   -2.3,   -2.3,   -2.3,   -2.3,   -2.3,   -2.3,   -2.3,   -2.3,   -2.3,   -2.3,   -2.4,   -2.4,   -2.4,   -2.4,   -2.5
2004/10/20 10:00,   -6.4,   -6.5,   -6.4,   -6.1,   -6.3,   -6.3,   -6.4,   -6.5,   -6.7,   -6.8,   -6.9,   -6.8,   -7.0,   -7.1,   -7.1,   -7.3,   -7.2,   -7.4,   -7.4,   -7.6,   -7.6,   -7.6,   -7.7,   -7.6,   -7.9,   -8.1,   -7.9,   -7.9,   -8.2,   -7.8,   -7.3,   -7.6,   -7.4,   -7.2,   -5.7,   -4.2,   -3.8,   -3.0,  999.0,   -2.2,   -2.0,   -2.4,   -2.4,   -2.4,   -2.4,   -2.4,   -2.4,   -2.3,   -2.3,   -2.3,   -2.3,   -2.3,   -2.3,   -2.2,   -2.2,   -2.2,   -2.1,   -2.1,   -2.1,   -2.1,   -2.1,   -2.1,   -2.2,   -2.1,   -2.1,   -2.1,   -2.0,   -2.1,   -2.1,   -2.2
2004/10/20 10:10,   -6.7,   -6.3,   -6.4,   -6.6,   -6.5,   -6.8,   -6.8,   -6.8,   -6.9,   -6.8,   -6.8,   -6.8,   -7.0,   -7.0,   -7.0,   -6.9,   -7.1,   -7.1,   -7.0,   -7.1,   -7.1,   -7.2,   -7.3,   -7.2,   -7.2,   -7.2,   -7.2,   -7.2,   -7.2,   -7.1,   -7.0,   -7.2,   -6.7,   -5.8,   -4.5,  999.0,  999.0,   -2.5,   -2.5,   -2.9,   -2.7,   -2.8,   -2.7,   -2.6,   -2.6,   -2.5,   -2.5,   -2.4,   -2.5,   -2.5,   -2.4,   -2.4,   -2.4,   -2.4,   -2.4,   -2.5,   -2.4,   -2.5,   -2.4,   -2.4,   -2.4,   -2.4,   -2.3,   -2.3,   -2.3,   -2.3,   -2.3,   -2.3,   -2.3,   -2.3
2004/10/20 10:20,   -5.9,   -5.7,   -5.7,   -5.8,   -5.8,   -5.8,   -6.0,   -6.0,   -5.9,   -5.9,   -5.9,   -6.1,   -5.9,   -6.1,   -6.1,   -6.1,   -6.1,   -6.1,   -6.1,   -6.2,   -6.3,   -6.3,   -6.4,   -6.5,   -6.6,   -6.6,   -6.7,   -6.5,   -6.3,   -6.3,   -6.2,   -6.3,   -6.2,   -6.3,   -5.7,   -4.1,   -3.0,   -2.9,   -2.9,   -2.7,   -2.9,   -2.8,   -2.8,   -2.6,   -2.6,   -2.6,   -2.5,   -2.4,   -2.4,   -2.6,   -2.8,   -2.6,   -2.5,   -2.6,   -2.4,   -2.5,   -2.6,   -2.6,   -2.6,   -2.6,   -2.6,   -2.5,   -2.5,   -2.4,   -2.4,   -2.5,   -2.5,   -2.5,   -2.4,   -2.4
2004/10/20 10:30,   -5.5,   -5.5,   -5.6,   -5.7,   -5.6,   -5.7,   -5.8,   -5.9,   -5.8,   -5.8,   -5.9,   -6.0,   -6.0,   -6.0,   -5.9,   -6.0,   -6.0,   -6.0,   -6.2,   -6.1,   -6.1,   -6.2,   -6.3,   -6.2,   -6.3,   -6.2,   -6.2,   -6.1,   -6.2,   -6.2,   -6.2,   -6.2,   -6.3,   -6.4,   -5.6,   -4.4,  999.0,   -2.7,   -2.4,   -2.3,   -2.4,   -2.3,   -2.3,   -2.4,   -2.3,   -2.4,   -2.5,   -2.5,   -2.4,   -2.4,   -2.5,   -2.5,   -2.5,   -2.6,   -2.6,   -2.5,   -2.5,   -2.5,   -2.5,   -2.5,   -2.5,   -2.5,   -2.4,   -2.4,   -2.4,   -2.4,   -2.5,   -2.5,   -2.5,   -2.4
2004/10/20 10:40,   -5.5,   -5.5,   -5.5,   -5.5,   -5.5,   -5.5,   -5.6,   -5.7,   -5.7,   -5.8,   -5.9,   -5.9,   -5.9,   -5.8,   -5.9,   -5.9,   -5.9,   -5.9,   -6.1,   -6.3,   -6.1,   -6.3,   -6.2,   -6.3,   -6.4,   -6.5,   -6.4,   -6.6,   -6.5,   -6.7,   -6.6,   -6.6,   -6.9,   -6.5,   -6.4,   -5.0,   -3.8,  999.0,   -2.9,   -3.0,   -2.8,   -2.9,   -2.9,   -2.8,   -2.8,   -2.7,   -2.7,   -2.8,   -2.8,   -2.8,   -2.7,   -2.7,   -2.8,   -2.9,   -2.8,   -2.8,   -2.8,   -2.7,   -2.7,   -2.7,   -2.6,   -2.6,   -2.6,   -2.5,   -2.5,   -2.5,   -2.4,   -2.4,   -2.3,   -2.3
2004/10/20 10:50,   -5.1,   -5.1,   -5.2,   -5.1,   -5.2,   -5.3,   -5.4,   -5.5,   -5.5,   -5.5,   -5.5,   -5.5,   -5.5,   -5.5,   -5.6,   -5.6,   -5.6,   -5.7,   -5.7,   -5.6,   -5.6,   -5.7,   -5.7,   -5.7,   -5.8,   -5.8,   -5.9,   -5.8,   -5.9,   -5.8,   -6.0,   -5.9,   -5.9,   -5.5,   -5.2,   -4.1,  999.0,   -3.3,   -3.1,   -3.1,   -3.0,   -3.0,   -3.2,   -3.1,   -3.1,   -3.0,   -3.0,   -3.1,   -3.1,   -3.1,   -3.0,   -3.1,   -3.2,   -3.1,   -3.2,   -3.2,   -3.2,   -3.1,   -3.0,   -3.0,   -2.8,   -2.7,   -2.7,   -2.7,   -2.8,   -2.8,   -2.7,   -2.6,   -2.5,   -2.5
2004/10/20 11:00,   -5.2,   -5.2,   -5.3,   -5.2,   -5.0,   -4.9,   -5.0,   -5.0,   -5.2,   -5.1,   -5.3,   -5.4,   -5.5,   -5.5,   -5.5,   -5.7,   -5.7,   -5.9,   -6.1,   -5.9,   -6.1,   -5.9,   -5.9,   -5.9,   -6.0,   -5.8,   -5.9,   -5.9,   -6.0,   -6.1,   -6.0,   -6.2,   -6.2,   -6.2,   -6.0,   -5.5,   -4.8,   -4.0,   -2.7,   -2.3,   -2.6,   -2.6,   -2.6,   -2.6,   -2.6,   -2.5,   -2.6,   -2.4,   -2.4,   -2.5,   -2.5,   -2.6,   -2.6,   -2.7,   -2.8,   -2.7,   -2.6,   -2.6,   -2.6,   -2.6,   -2.7,   -2.7,   -2.7,   -2.7,   -2.7,   -2.7,   -2.6,   -2.5,   -2.5,   -2.5
2004/10/20 11:10,   -5.1,   -5.2,   -5.7,   -6.1,   -6.2,   -6.3,   -6.2,   -6.2,   -6.5,   -6.7,   -6.7,   -6.7,   -6.8,   -6.8,   -6.8,   -6.8,   -6.7,   -6.8,   -7.0,   -6.9,   -7.0,   -7.1,   -7.1,   -6.9,   -6.8,   -6.8,   -6.8,   -6.5,   -6.2,   -6.4,   -6.3,   -6.4,   -6.8,   -6.8,   -6.4,   -5.9,   -4.9,  999.0,   -2.9,   -2.7,   -2.7,   -2.8,   -2.6,   -2.6,   -2.5,   -2.4,   -2.3,   -2.3,   -2.3,   -2.4,   -2.5,   -2.6,   -2.7,   -2.7,   -2.8,   -2.8,   -2.8,   -2.9,   -2.9,   -2.9,   -2.9,   -2.9,   -2.8,   -2.8,   -2.8,   -2.8,   -2.7,   -2.6,   -2.5,   -2.5
2004/10/20 11:20,   -6.3,   -6.2,   -6.3,   -6.4,   -6.4,   -6.3,   -6.4,   -6.5,   -6.6,   -6.5,   -6.6,   -6.8,   -7.0,   -7.0,   -7.1,   -7.0,   -7.0,   -7.0,   -7.0,   -7.1,   -7.2,   -7.3,   -7.5,   -7.4,   -7.3,   -7.6,   -7.7,   -7.7,   -7.6,   -7.6,   -7.6,   -7.7,   -7.7,   -7.6,   -7.4,   -5.9,   -4.9,  999.0,   -2.3,   -2.6,   -2.5,   -2.6,   -2.6,   -2.7,   -2.6,   -2.7,   -2.6,   -2.6,   -2.6,   -2.6,   -2.6,   -2.6,   -2.6,   -2.7,   -2.7,   -2.7,   -2.8,   -2.8,   -2.7,   -2.8,   -2.8,   -2.9,   -2.8,   -2.8,   -2.8,   -2.8,   -2.7,   -2.7,   -2.7,   -2.7
2004/10/20 11:30,   -6.1,   -6.2,   -6.2,   -6.2,   -6.2,   -6.3,   -6.4,   -6.5,   -6.5,   -6.5,   -6.5,   -6.7,   -6.6,   -7.0,   -7.0,   -7.2,   -7.3,   -7.4,   -7.6,   -7.6,   -7.7,   -7.9,   -7.8,   -7.8,   -7.8,   -8.1,   -8.1,   -8.2,   -8.2,   -8.2,   -8.3,   -8.3,   -8.3,   -8.0,   -7.4,   -6.1,   -4.6,   -3.4,   -2.7,   -2.6,   -2.4,   -2.6,   -2.6,   -2.8,   -2.8,   -3.0,   -2.9,   -2.6,   -2.9,   -2.9,   -2.9,   -3.0,   -3.0,   -3.0,   -3.0,   -3.1,   -3.0,   -3.0,   -3.0,   -3.0,   -3.0,   -3.0,   -3.0,   -2.9,   -2.9,   -2.9,   -2.9,   -2.7,   -2.7,   -2.6
2004/10/20 11:40,   -7.3,   -7.2,   -7.2,   -7.2,   -7.3,   -7.4,   -7.4,   -7.6,   -7.7,   -7.7,   -7.6,   -8.0,   -8.0,   -8.1,   -7.8,   -7.9,   -8.1,   -8.3,   -8.4,   -8.5,   -8.5,   -8.7,   -8.8,   -8.9,   -9.0,   -9.1,   -9.2,   -9.4,   -9.4,   -9.2,   -9.3,   -9.3,   -9.2,   -9.0,   -8.1,   -6.1,  999.0,  999.0,   -3.5,   -3.2,   -3.0,   -2.9,   -3.0,   -3.0,   -2.9,   -3.0,   -3.1,   -3.0,   -3.0,   -3.0,   -3.0,   -3.0,   -3.0,   -2.9,   -3.0,   -2.9,   -2.9,   -2.9,   -2.9,   -2.9,   -2.9,   -2.9,   -2.9,   -2.9,   -2.9,   -2.9,   -2.9,   -2.9,   -2.9,   -2.8
2004/10/20 11:50,   -7.4,   -7.3,   -7.4,   -7.5,   -7.5,   -7.6,   -7.5,   -7.6,   -7.7,   -7.7,   -7.7,   -7.8,   -7.8,   -7.9,   -7.9,   -8.0,   -8.0,   -8.2,   -8.3,   -8.5,   -8.5,   -8.4,   -8.9,   -8.6,   -8.5,   -8.4,   -8.3,   -8.5,   -8.3,   -8.4,   -8.7,   -8.9,   -8.3,   -8.3,   -8.1,   -6.9,   -5.8,   -4.5,   -3.6,   -3.3,   -3.1,   -3.0,   -2.9,   -2.6,   -2.6,   -2.7,   -2.8,   -2.8,   -2.9,   -3.0,   -3.0,   -2.9,   -2.8,   -2.9,   -2.9,   -2.9,   -2.9,   -2.9,   -2.9,   -2.9,   -2.8,   -2.8,   -2.8,   -2.8,   -2.8,   -2.8,   -2.9,   -2.9,   -2.9,   -2.9
2004/10/20 12:00,   -7.5,   -7.3,   -7.2,   -7.2,   -7.2,   -7.3,   -7.3,   -7.5,   -7.5,   -7.6,   -7.5,   -7.5,   -7.6,   -7.6,   -7.8,   -7.9,   -7.9,   -7.9,   -8.0,   -8.1,   -8.1,   -8.2,   -8.2,   -8.2,   -8.2,   -8.1,   -8.4,   -8.5,   -8.5,   -8.5,   -8.7,   -8.7,   -8.9,   -8.4,   -8.2,   -7.1,   -5.8,   -4.7,   -3.8,   -3.3,   -2.9,   -2.9,   -3.0,   -2.9,   -2.8,   -2.8,   -2.9,   -2.9,   -3.0,   -3.0,   -3.0,   -3.0,   -3.0,   -3.0,   -3.0,   -3.1,   -3.1,   -3.1,   -3.1,   -3.1,   -3.1,   -3.0,   -3.0,   -3.1,   -3.0,   -3.0,   -3.0,   -3.1,   -3.1,   -3.1
2004/10/20 12:10,   -7.4,   -7.4,   -7.3,   -7.0,   -6.8,   -6.9,   -6.9,   -6.9,   -7.0,   -7.2,   -7.4,   -7.5,   -7.5,   -7.6,   -7.8,   -7.7,   -7.9,   -7.8,   -7.8,   -7.8,   -7.9,   -7.9,   -8.1,   -8.2,   -8.3,   -8.4,   -8.5,   -8.9,   -8.8,   -8.9,   -9.5,   -9.2,   -9.5,   -9.3,   -8.5,   -7.8,   -5.9,   -4.9,   -4.2,   -3.6,   -3.5,   -3.4,   -3.2,   -3.2,   -3.2,   -3.0,   -3.0,   -2.9,   -2.8,   -2.8,   -2.7,   -2.7,   -2.6,   -2.6,   -2.6,   -2.6,   -2.6,   -2.6,   -2.6,   -2.6,   -2.6,   -2.6,   -2.5,   -2.5,   -2.5,   -2.5,   -2.5,   -2.5,   -2.5,   -2.5
2004/10/20 12:20,   -7.6,   -7.5,   -7.6,   -7.5,   -7.4,   -7.4,   -7.5,   -7.5,   -7.7,   -7.7,   -7.8,   -7.9,   -8.0,   -8.1,   -8.1,   -8.3,   -8.4,   -8.5,   -8.5,   -8.6,   -8.8,   -8.8,   -9.0,   -9.0,   -9.2,   -9.0,   -9.2,   -9.3,   -9.3,   -9.4,   -9.4,   -9.3,   -9.6,   -9.5,   -8.9,   -8.6,  999.0,   -6.7,   -5.8,  999.0,  999.0,   -3.8,   -3.3,   -3.4,   -3.3,   -3.2,   -3.2,   -3.2,   -3.2,   -3.1,   -3.1,   -3.1,   -3.1,   -2.9,   -3.0,   -2.9,   -3.0,   -3.0,   -2.9,   -2.9,   -2.9,   -2.9,   -2.8,   -2.7,   -2.7,   -2.7,   -2.6,   -2.6,   -2.5,   -2.4
2004/10/20 12:30,   -7.6,   -7.6,   -7.6,   -7.6,   -7.5,   -7.5,   -7.7,   -7.3,   -7.4,   -7.5,   -7.4,   -7.4,   -7.4,   -7.4,   -7.4,   -7.5,   -7.3,   -7.4,   -7.5,   -7.5,   -7.8,   -7.6,   -7.7,   -7.6,   -7.7,   -7.7,   -7.9,   -7.7,   -7.4,   -7.5,   -7.6,   -8.2,   -8.0,   -7.8,  999.0,   -8.3,  999.0,  999.0,  999.0,   -5.1,   -4.3,   -3.7,   -3.4,   -3.4,   -3.3,   -3.2,   -3.1,   -3.1,   -3.0,   -2.9,   -2.9,   -2.8,   -2.7,   -2.7,   -2.6,   -2.6,   -2.5,   -2.4,   -2.4,   -2.5,   -2.5,   -2.5,   -2.4,   -2.4,   -2.4,   -2.5,   -2.4,   -2.4,   -2.4,   -2.4
2004/10/20 12:40,   -6.3,   -6.1,   -5.9,   -6.0,   -6.0,   -6.0,   -6.0,   -6.3,   -6.3,   -6.4,   -6.6,   -6.8,   -6.9,   -6.9,   -6.9,   -6.9,   -6.9,   -7.0,   -7.1,   -7.0,   -7.2,   -7.1,   -7.0,   -7.1,   -7.0,   -7.3,   -7.2,   -7.2,   -7.1,   -7.2,   -7.7,   -7.5,   -7.2,   -7.1,  999.0,  999.0,  999.0,  999.0,  999.0,  999.0,   -5.3,   -4.3,   -3.6,   -3.4,   -3.3,   -3.3,   -3.2,   -3.2,   -3.1,   -3.0,   -3.0,   -2.9,   -2.8,   -2.6,   -2.6,   -2.5,   -2.4,   -2.4,   -2.4,   -2.4,   -2.5,   -2.5,   -2.5,   -2.5,   -2.6,   -2.6,   -2.6,   -2.6,   -2.5,   -2.5
2004/10/20 12:50,   -6.2,   -6.0,   -6.1,   -6.1,   -6.1,   -6.1,   -6.0,   -6.1,   -6.1,   -6.1,   -6.1,   -6.2,   -6.2,   -6.2,   -6.4,   -6.3,   -6.4,   -6.2,   -5.8,   -6.6,   -6.4,   -6.5,   -6.6,   -7.1,   -6.9,   -7.1,   -7.2,   -7.4,   -7.5,  999.0,   -7.2,   -7.0,   -7.2,  999.0,  999.0,  999.0,  999.0,   -7.1,   -6.8,  999.0,   -4.9,   -4.7,   -4.1,   -3.6,   -3.3,   -3.0,   -3.0,   -2.9,   -2.7,   -2.7,   -2.6,   -2.5,   -2.5,   -2.5,   -2.4,   -2.3,   -2.2,   -2.4,   -2.4,   -2.4,   -2.3,   -2.2,   -2.3,   -2.3,   -2.3,   -2.4,   -2.4,   -2.3,   -2.3,   -2.2
2004/10/20 13:00,   -6.1,   -6.2,   -6.3,   -6.3,   -6.3,   -6.2,   -6.3,   -6.3,   -6.4,   -6.5,   -6.4,   -6.7,   -6.8,   -6.8,   -6.9,   -6.8,   -6.7,   -6.7,   -6.9,   -6.9,   -6.7,   -6.7,   -6.9,   -6.9,   -6.7,   -6.9,   -7.0,   -6.9,   -7.2,   -6.5,   -6.8,  999.0,  999.0,  999.0,  999.0,  999.0,  999.0,  999.0,   -6.8,   -6.3,   -5.7,   -4.7,   -4.0,   -3.4,   -2.8,   -2.8,   -2.7,   -2.7,   -2.7,   -2.7,   -2.6,   -2.6,   -2.4,   -2.3,   -2.2,   -2.0,   -2.0,   -2.0,   -2.0,   -1.9,   -1.9,   -1.9,   -1.9,   -1.9,   -1.9,   -1.9,   -1.9,   -1.8,   -1.8,   -1.8
2004/10/20 13:10,   -6.5,   -6.4,   -6.3,   -5.8,   -5.9,   -6.4,   -6.4,   -6.7,   -6.8,   -6.9,   -7.0,   -7.1,   -7.2,   -7.2,   -7.3,   -7.3,   -7.3,   -7.3,   -7.5,   -7.5,   -7.7,   -7.5,   -7.7,   -7.7,   -7.6,  999.0,   -7.5,  999.0,   -7.4,  999.0,  999.0,   -8.1,  999.0,  999.0,  999.0,  999.0,  999.0,  999.0,  999.0,   -6.8,   -5.1,   -4.3,   -3.8,   -3.6,   -3.6,   -3.4,   -3.3,   -3.0,   -3.0,   -3.0,   -2.9,   -2.8,   -2.7,   -2.7,   -2.6,   -2.5,   -2.6,   -2.6,   -2.5,   -2.6,   -2.6,   -2.5,   -2.5,   -2.4,   -2.3,   -2.2,   -2.2,   -2.1,   -2.0,   -1.9
2004/10/20 13:20,   -6.8,   -6.3,   -6.1,   -6.2,   -6.2,   -6.3,   -6.3,   -6.5,   -6.6,   -6.6,   -6.6,   -6.5,   -6.6,   -7.0,   -7.2,   -7.3,   -7.6,   -6.8,   -7.7,   -7.6,   -7.8,   -8.1,   -7.5,   -8.0,   -8.2,  999.0,  999.0,  999.0,   -7.9,  999.0,  999.0,  999.0,  999.0,  999.0,   -8.5,  999.0,  999.0,  999.0,  999.0,  999.0,   -5.5,   -4.1,   -3.4,   -3.1,   -3.1,   -3.0,   -2.9,   -2.9,   -2.8,   -2.8,   -2.8,   -2.7,   -2.7,   -2.6,   -2.6,   -2.5,   -2.5,   -2.4,   -2.4,   -2.3,   -2.3,   -2.3,   -2.3,   -2.3,   -2.3,   -2.2,   -2.2,   -2.1,   -2.1,   -2.1
2004/10/20 13:30,   -6.6,   -6.4,   -6.4,   -6.6,   -6.7,   -6.7,   -6.7,   -6.8,   -6.7,   -6.8,   -6.9,   -6.9,   -6.9,   -6.8,   -6.7,   -6.6,   -6.7,   -6.8,   -6.8,   -6.7,   -6.9,   -6.8,   -7.1,   -7.7,   -7.3,   -7.0,   -6.7,   -6.9,   -7.2,   -6.9,   -7.0,  999.0,  999.0,  999.0,  999.0,  999.0,   -6.8,   -7.2,   -6.5,  999.0,   -5.2,   -4.8,   -3.9,   -3.4,   -3.3,   -3.1,   -3.0,   -2.9,   -2.8,   -2.6,   -2.6,   -2.5,   -2.4,   -2.4,   -2.3,   -2.3,   -2.3,   -2.3,   -2.2,   -2.2,   -2.2,   -2.2,   -2.2,   -2.2,   -2.2,   -2.2,   -2.1,   -2.1,   -2.1,   -2.0
2004/10/20 13:40,   -6.2,   -5.8,   -6.3,   -6.3,   -6.3,   -6.2,   -6.1,   -6.3,   -6.4,   -6.5,   -6.3,   -6.4,   -6.4,   -6.5,   -6.5,   -6.8,   -6.7,   -6.6,   -6.6,   -6.6,  999.0,   -6.8,   -6.9,   -6.7,   -6.6,   -6.9,   -6.8,  999.0,   -7.4,  999.0,  999.0,   -7.3,  999.0,  999.0,  999.0,  999.0,  999.0,  999.0,  999.0,   -7.0,   -5.1,   -4.3,   -3.6,   -3.4,   -3.1,   -3.1,   -3.0,   -2.9,   -2.9,   -2.8,   -2.7,   -2.7,   -2.6,   -2.6,   -2.5,   -2.6,   -2.5,   -2.5,   -2.5,   -2.5,   -2.4,   -2.4,   -2.4,   -2.3,   -2.4,   -2.3,   -2.3,   -2.3,   -2.3,   -2.3
2004/10/20 13:50,   -6.8,   -6.7,   -6.7,   -6.5,   -6.4,   -6.4,   -6.5,   -6.6,   -6.6,   -6.7,   -7.0,   -7.0,   -7.2,   -7.4,   -7.2,   -7.5,   -7.4,   -7.7,   -7.8,   -7.6,   -7.5,   -7.8,  999.0,  999.0,  999.0,  999.0,  999.0,  999.0,  999.0,  999.0,  999.0,  999.0,  999.0,  999.0,  999.0,  999.0,  999.0,  999.0,  999.0,   -6.5,   -5.3,   -4.6,   -3.8,   -3.4,   -3.1,   -3.2,   -2.8,   -2.9,   -3.0,   -2.7,   -2.7,   -2.7,   -2.7,   -2.7,   -2.7,   -2.6,   -2.7,   -2.6,   -2.6,   -2.5,   -2.5,   -2.5,   -2.4,   -2.5,   -2.4,   -2.3,   -2.3,   -2.3,   -2.3,   -2.3
2004/10/20 14:00,   -7.3,   -7.1,   -7.0,   -7.0,   -7.0,   -7.1,   -7.1,   -7.1,   -7.1,   -7.3,   -7.4,   -7.4,   -7.5,   -7.5,   -7.5,   -7.5,   -7.6,   -7.6,   -7.4,   -7.7,   -7.6,   -7.4,  999.0,  999.0,  999.0,   -7.6,  999.0,  999.0,  999.0,  999.0,  999.0,  999.0,  999.0,  999.0,  999.0,  999.0,  999.0,  999.0,   -6.8,   -5.9,   -5.1,   -4.3,   -3.7,   -3.4,   -3.4,   -3.3,   -3.1,   -3.1,   -2.9,   -2.9,   -2.9,   -2.9,   -2.7,   -2.7,   -2.7,   -2.7,   -2.7,   -2.6,   -2.6,   -2.5,   -2.5,   -2.5,   -2.4,   -2.4,   -2.4,   -2.3,   -2.3,   -2.3,   -2.2,   -2.2
2004/10/20 14:10,   -7.6,   -7.3,   -7.2,   -7.1,   -7.2,   -7.2,   -7.3,   -7.2,   -7.4,   -7.6,   -7.3,   -7.5,   -7.6,   -7.6,   -7.5,   -7.6,   -7.6,   -7.6,   -7.8,   -7.8,   -7.6,  999.0,  999.0,  999.0,  999.0,  999.0,  999.0,  999.0,  999.0,  999.0,  999.0,  999.0,  999.0,  999.0,  999.0,  999.0,  999.0,  999.0,  999.0,  999.0,   -5.4,   -4.8,   -3.9,   -3.6,   -3.6,   -3.2,   -3.4,   -3.4,   -3.5,   -3.3,   -3.2,   -3.1,   -3.2,   -3.1,   -3.0,   -3.0,   -3.0,   -3.1,   -2.9,   -2.8,   -2.9,   -2.9,   -2.8,   -2.7,   -2.7,   -2.7,   -2.6,   -2.5,   -2.4,   -2.3
2004/10/20 14:20,   -7.5,   -7.4,   -7.0,   -7.3,   -7.3,   -7.3,   -7.2,   -7.3,   -7.2,   -7.2,   -7.6,   -7.6,   -7.7,   -7.8,   -7.7,   -7.7,   -7.8,   -7.9,   -8.0,   -7.7,   -8.0,  999.0,  999.0,  999.0,  999.0,  999.0,  999.0,  999.0,  999.0,  999.0,  999.0,  999.0,  999.0,  999.0,  999.0,  999.0,  999.0,  999.0,  999.0,   -6.9,   -5.7,   -5.0,   -4.2,   -3.7,   -3.5,   -3.5,   -3.5,   -3.3,   -3.2,   -3.2,   -3.1,   -3.0,   -3.0,   -3.0,   -2.9,   -2.9,   -2.8,   -2.8,   -2.8,   -2.7,   -2.8,   -2.7,   -2.7,   -2.7,   -2.7,   -2.7,   -2.5,   -2.4,   -2.4,   -2.4
2004/10/20 14:30,   -7.4,   -7.4,   -7.2,   -7.1,   -7.1,   -7.1,   -6.8,   -7.4,   -7.6,   -7.5,   -7.4,   -7.4,   -7.4,   -7.8,   -7.6,   -7.6,   -7.8,   -7.9,   -7.8,  999.0,   -7.9,  999.0,  999.0,  999.0,  999.0,  999.0,  999.0,  999.0,  999.0,  999.0,  999.0,  999.0,  999.0,  999.0,  999.0,  999.0,  999.0,   -7.8,  999.0,   -6.9,   -6.0,   -5.1,   -4.4,   -4.1,   -3.9,   -3.7,   -3.7,   -3.6,   -3.5,   -3.3,   -3.2,   -3.1,   -3.1,   -3.1,   -3.0,   -2.8,   -2.7,   -2.6,   -2.5,   -2.6,   -2.5,   -2.5,   -2.6,   -2.7,   -2.7,   -2.5,   -2.5,   -2.5,   -2.7,   -2.7
2004/10/20 14:40,   -7.8,   -7.5,   -6.9,   -6.9,   -6.9,   -6.9,   -6.8,   -6.9,   -7.0,   -7.1,   -7.1,   -7.0,   -7.0,   -7.0,   -7.0,   -6.9,   -6.9,   -6.4,  999.0,  999.0,  999.0,  999.0,  999.0,  999.0,  999.0,  999.0,  999.0,  999.0,  999.0,  999.0,  999.0,  999.0,  999.0,  999.0,  999.0,  999.0,  999.0,  999.0,  999.0,  999.0,  999.0,   -6.5,   -5.1,   -4.5,   -3.9,   -3.6,   -3.7,   -3.2,   -3.2,   -3.2,   -3.4,   -3.4,   -3.4,   -3.2,   -3.2,   -3.2,   -3.2,   -3.1,   -3.1,   -3.1,   -3.0,   -3.0,   -2.9,   -2.8,   -2.7,   -2.6,   -2.6,   -2.6,   -2.5,   -2.4
2004/10/20 14:50,   -6.4,   -5.7,   -5.6,   -5.7,   -5.8,  999.0,   -5.5,   -5.9,   -5.2,   -5.2,   -6.1,   -5.6,   -5.6,   -5.9,   -5.0,   -5.7,   -5.4,   -5.5,  999.0,   -6.6,   -6.9,  999.0,  999.0,  999.0,  999.0,  999.0,  999.0,  999.0,  999.0,  999.0,  999.0,  999.0,  999.0,  999.0,  999.0,  999.0,  999.0,  999.0,  999.0,  999.0,  999.0,   -6.5,   -5.6,   -4.9,   -4.1,   -3.9,   -3.8,   -3.6,   -3.5,   -3.3,   -3.2,   -3.1,   -3.0,   -3.0,   -2.9,   -2.8,   -2.8,   -2.8,   -2.7,   -2.7,   -2.7,   -2.6,   -2.6,   -2.6,   -2.6,   -2.5,   -2.5,   -2.4,   -2.5,   -2.4
2004/10/20 15:00,   -6.6,   -6.1,   -5.8,   -5.7,   -5.9,   -5.6,   -6.2,   -6.3,   -6.3,   -6.5,   -6.5,   -6.2,   -6.5,   -6.7,   -7.3,  999.0,  999.0,  999.0,  999.0,  999.0,  999.0,  999.0,  999.0,  999.0,  999.0,  999.0,  999.0,  999.0,  999.0,  999.0,  999.0,  999.0,  999.0,  999.0,  999.0,  999.0,  999.0,  999.0,  999.0,  999.0,  999.0,  999.0,   -5.2,   -4.5,   -3.8,   -3.7,   -3.7,   -3.6,   -3.5,   -3.4,   -3.3,   -3.2,   -3.1,   -3.0,   -2.9,   -2.8,   -2.7,   -2.6,   -2.5,   -2.5,   -2.4,   -2.4,   -2.3,   -2.3,   -2.3,   -2.2,   -2.2,   -2.2,   -2.2,   -2.1
2004/10/20 15:10,   -6.9,   -7.1,   -6.8,   -6.6,   -6.7,   -6.7,   -6.5,   -6.7,   -7.2,   -7.0,   -7.0,   -7.1,   -7.2,   -7.2,   -7.4,   -7.4,   -7.5,   -7.4,  999.0,  999.0,  999.0,  999.0,  999.0,  999.0,  999.0,  999.0,  999.0,  999.0,  999.0,  999.0,  999.0,  999.0,  999.0,  999.0,  999.0,  999.0,  999.0,  999.0,  999.0,  999.0,  999.0,   -6.1,   -5.3,   -4.7,   -4.4,   -3.5,   -3.8,   -3.7,   -3.6,   -3.6,   -3.5,   -3.3,   -3.2,   -3.3,   -3.2,   -3.1,   -2.9,   -2.8,   -2.8,   -2.7,   -2.7,   -2.7,   -2.6,   -2.7,   -2.6,   -2.6,   -2.6,   -2.6,   -2.6,   -2.6
2004/10/20 15:20,   -6.7,   -6.7,   -6.4,   -6.2,   -6.1,   -5.9,   -6.1,   -6.8,   -6.3,   -6.4,   -6.6,   -6.7,   -6.7,   -7.1,   -6.9,  999.0,  999.0,  999.0,  999.0,  999.0,  999.0,  999.0,  999.0,  999.0,  999.0,  999.0,  999.0,  999.0,  999.0,  999.0,  999.0,  999.0,  999.0,  999.0,  999.0,  999.0,  999.0,  999.0,  999.0,  999.0,  999.0,   -6.3,   -5.6,   -4.8,   -4.5,   -4.1,   -4.0,   -3.9,   -3.8,   -3.8,   -3.8,   -3.6,   -3.5,   -3.5,   -3.4,   -3.3,   -3.2,   -3.1,   -3.2,   -3.2,   -3.2,   -3.2,   -3.2,   -3.2,   -3.0,   -3.0,   -2.9,   -2.8,   -2.8,   -2.8
2004/10/20 15:30,   -6.9,   -6.8,   -6.7,   -7.0,   -6.6,   -6.9,   -6.5,   -6.7,   -6.5,   -6.9,   -6.8,   -6.3,   -7.1,  999.0,  999.0,  999.0,  999.0,  999.0,  999.0,  999.0,  999.0,  999.0,  999.0,  999.0,  999.0,  999.0,  999.0,  999.0,  999.0,  999.0,  999.0,  999.0,  999.0,  999.0,  999.0,  999.0,  999.0,  999.0,  999.0,  999.0,  999.0,   -6.9,   -5.8,   -5.0,   -4.4,   -4.0,   -4.1,   -3.8,   -3.7,   -3.7,   -3.6,   -3.5,   -3.4,   -3.3,   -3.2,   -3.2,   -3.1,   -3.0,   -3.0,   -2.9,   -2.9,   -2.8,   -2.8,   -2.8,   -2.8,   -2.7,   -2.7,   -2.6,   -2.5,   -2.4
2004/10/20 15:40,   -5.8,   -6.2,   -5.8,   -5.5,   -5.8,   -6.2,   -6.2,   -6.4,   -6.3,   -6.5,   -6.0,   -6.8,  999.0,  999.0,  999.0,  999.0,  999.0,  999.0,  999.0,  999.0,  999.0,  999.0,  999.0,  999.0,  999.0,  999.0,  999.0,  999.0,  999.0,  999.0,  999.0,  999.0,  999.0,  999.0,  999.0,  999.0,  999.0,  999.0,  999.0,  999.0,  999.0,  999.0,   -6.8,   -5.9,   -5.3,   -5.0,   -4.4,   -4.5,   -4.3,   -4.0,   -3.9,   -3.8,   -3.6,   -3.5,   -3.4,   -3.4,   -3.4,   -3.4,   -3.3,   -3.3,   -3.2,   -3.2,   -3.2,   -3.1,   -3.0,   -2.9,   -2.8,   -2.6,   -2.5,   -2.4
2004/10/20 15:50,   -7.0,   -6.5,   -6.6,   -6.4,   -6.3,   -7.4,   -7.1,   -7.1,   -7.0,   -6.9,   -7.4,   -7.6,   -7.6,  999.0,  999.0,  999.0,  999.0,  999.0,  999.0,  999.0,  999.0,  999.0,  999.0,  999.0,  999.0,  999.0,  999.0,  999.0,  999.0,  999.0,  999.0,  999.0,  999.0,  999.0,  999.0,  999.0,  999.0,  999.0,  999.0,  999.0,  999.0,  999.0,   -6.9,   -6.0,   -5.0,   -4.2,   -3.8,   -3.9,   -3.8,   -3.6,   -3.5,   -3.3,   -3.3,   -3.2,   -3.1,   -3.0,   -3.0,   -3.1,   -3.0,   -3.1,   -3.0,   -3.0,   -2.9,   -2.9,   -2.8,   -2.7,   -2.7,   -2.7,   -2.7,   -2.7
2004/10/20 16:00,   -7.2,   -6.9,   -6.6,   -6.7,   -6.5,   -6.5,   -6.5,   -6.4,   -6.6,   -6.3,   -6.8,   -6.8,   -6.0,  999.0,   -6.7,   -6.5,  999.0,  999.0,  999.0,  999.0,  999.0,  999.0,  999.0,  999.0,  999.0,  999.0,  999.0,  999.0,  999.0,   -7.8,  999.0,   -7.7,   -7.5,  999.0,  999.0,  999.0,  999.0,  999.0,  999.0,  999.0,  999.0,  999.0,   -6.2,   -5.5,   -4.6,   -3.8,   -3.7,   -3.7,   -3.7,   -3.6,   -3.6,   -3.5,   -3.4,   -3.4,   -3.4,   -3.3,   -3.2,   -3.1,   -3.0,   -3.0,   -2.9,   -3.0,   -2.9,   -2.9,   -2.9,   -2.9,   -2.9,   -2.9,   -2.9,   -2.8
2004/10/20 16:10,   -5.9,   -6.1,   -5.9,   -6.1,   -6.0,   -6.1,   -6.0,   -5.7,   -6.0,   -5.5,   -5.7,   -6.1,   -5.9,   -6.2,   -6.8,   -6.1,  999.0,  999.0,  999.0,  999.0,  999.0,  999.0,  999.0,  999.0,  999.0,  999.0,  999.0,  999.0,  999.0,  999.0,  999.0,  999.0,  999.0,  999.0,  999.0,  999.0,  999.0,  999.0,  999.0,  999.0,   -6.6,  999.0,   -6.0,   -5.3,   -4.4,   -4.1,   -4.0,   -3.8,   -3.8,   -3.7,   -3.6,   -3.5,   -3.4,   -3.4,   -3.3,   -3.3,   -3.2,   -3.2,   -3.2,   -3.1,   -3.1,   -3.2,   -3.1,   -3.1,   -3.1,   -3.0,   -3.0,   -2.9,   -2.9,   -2.9
2004/10/20 16:20,   -7.1,   -7.0,   -6.9,   -6.9,   -7.0,   -6.6,   -6.7,   -6.8,   -6.7,   -6.5,   -6.2,   -6.4,   -6.6,   -6.4,  999.0,  999.0,  999.0,  999.0,  999.0,  999.0,  999.0,  999.0,  999.0,  999.0,  999.0,  999.0,  999.0,  999.0,  999.0,  999.0,  999.0,  999.0,  999.0,  999.0,  999.0,  999.0,  999.0,  999.0,  999.0,  999.0,  999.0,  999.0,   -5.3,   -4.7,   -4.2,   -4.1,   -4.0,   -3.9,   -3.8,   -3.7,   -3.6,   -3.6,   -3.5,   -3.6,   -3.6,   -3.7,   -3.6,   -3.6,   -3.6,   -3.6,   -3.6,   -3.6,   -3.5,   -3.5,   -3.5,   -3.4,   -3.3,   -3.3,   -3.3,   -3.2
2004/10/20 16:30,   -7.4,   -7.3,   -6.9,   -7.1,   -7.0,   -7.2,   -7.3,   -7.5,   -7.5,   -7.6,   -7.5,   -7.7,   -7.6,   -7.7,   -7.7,   -7.7,   -7.6,   -7.3,   -7.4,  999.0,   -7.9,   -7.4,   -7.3,   -7.2,   -7.2,   -7.4,  999.0,  999.0,  999.0,  999.0,  999.0,  999.0,  999.0,  999.0,  999.0,  999.0,  999.0,  999.0,  999.0,  999.0,  999.0,  999.0,   -5.7,   -4.9,   -4.4,   -4.0,   -3.9,   -3.7,   -3.5,   -3.4,   -3.3,   -3.2,   -3.1,   -3.1,   -3.1,   -2.9,   -2.9,   -2.9,   -2.9,   -2.9,   -2.9,   -2.9,   -2.9,   -2.8,   -2.7,   -2.6,   -2.6,   -2.6,   -2.5,   -2.5
2004/10/20 16:40,   -7.0,   -6.9,   -7.0,   -6.7,   -6.8,   -6.7,   -6.7,   -6.7,   -6.6,   -6.7,   -6.7,   -6.6,   -6.7,   -6.6,   -6.8,   -6.6,   -6.8,   -6.2,   -6.3,   -6.3,   -6.5,   -6.2,   -6.6,   -6.3,   -6.1,  999.0,   -6.4,   -6.5,   -5.8,  999.0,  999.0,  999.0,   -6.0,  999.0,  999.0,  999.0,  999.0,  999.0,  999.0,  999.0,  999.0,  999.0,   -5.5,   -4.9,   -4.6,   -4.3,   -4.0,   -3.9,   -3.7,   -3.5,   -3.3,   -3.3,   -3.3,   -3.1,   -3.1,   -3.0,   -3.0,   -3.0,   -3.0,   -3.1,   -3.1,   -3.1,   -3.1,   -3.1,   -3.1,   -3.1,   -3.0,   -3.0,   -2.8,   -2.7
2004/10/20 16:50,   -5.9,   -6.0,   -5.7,   -5.9,   -6.6,   -6.5,   -6.0,   -6.1,   -6.4,   -5.6,   -5.9,   -5.5,   -5.4,   -5.1,   -5.9,  999.0,   -5.6,   -6.1,   -6.4,   -5.7,  999.0,  999.0,  999.0,  999.0,  999.0,   -6.0,   -6.1,   -5.7,   -5.7,   -5.6,   -4.7,   -5.2,   -5.3,   -5.8,   -6.4,   -6.0,   -6.5,   -6.8,  999.0,   -6.8,  999.0,  999.0,  999.0,   -5.7,   -4.7,   -4.5,   -4.5,   -4.3,   -4.3,   -4.6,   -4.6,   -5.1,   -5.0,   -5.1,   -5.0,   -5.0,   -4.9,   -4.8,   -4.7,   -4.6,   -4.4,   -4.3,   -4.2,   -4.0,   -3.8,   -3.7,   -3.6,   -3.5,   -3.3,   -3.3
2004/10/20 17:00,   -5.1,   -4.9,   -4.8,   -5.1,   -4.8,   -5.0,   -5.4,   -5.3,   -5.3,   -5.3,   -5.4,   -5.2,   -5.9,   -5.8,   -6.0,   -6.0,  999.0,  999.0,   -6.2,   -6.1,   -6.6,   -6.2,   -6.1,   -5.8,  999.0,  999.0,   -5.8,  999.0,   -5.7,  999.0,   -6.2,   -5.9,   -6.0,   -5.8,  999.0,   -5.5,   -5.5,   -5.4,   -5.5,  999.0,  999.0,   -6.4,  999.0,  999.0,   -5.2,   -4.7,   -4.5,   -4.4,   -4.3,   -4.3,   -4.2,   -4.0,   -4.0,   -4.2,   -4.2,   -4.0,   -3.5,   -3.6,   -3.5,   -3.5,   -3.4,   -3.2,   -3.0,   -2.9,   -2.8,   -2.5,   -2.0,   -1.9,   -2.1,   -1.9
2004/10/20 17:10,   -5.8,   -5.6,   -5.4,   -5.4,   -5.1,   -5.4,   -5.1,   -5.1,   -5.2,   -4.9,   -5.3,   -5.0,   -5.2,   -5.4,  999.0,  999.0,  999.0,  999.0,  999.0,   -3.9,   -3.6,   -4.0,   -4.5,   -4.4,   -4.3,   -4.4,   -4.1,   -4.1,   -4.1,   -4.2,   -4.0,   -3.9,   -3.4,   -3.7,   -3.7,   -3.1,   -3.5,   -3.5,   -3.5,  999.0,  999.0,  999.0,  999.0,  999.0,  999.0,  999.0,  999.0,  999.0,  999.0,  999.0,  999.0,  999.0,  999.0,  999.0,  999.0,  999.0,  999.0,  999.0,  999.0,  999.0,   -3.9,   -4.0,   -3.8,   -2.3,   -2.0,   -1.9,   -2.3,  999.0,  999.0,  999.0
2004/10/20 17:20,   -2.0,   -1.7,   -2.3,   -2.1,   -2.1,   -2.1,   -2.2,   -2.5,   -2.4,   -3.0,   -3.0,   -3.2,   -3.2,   -3.6,   -3.2,   -3.1,   -3.2,   -3.3,   -2.7,   -3.9,   -4.5,  999.0,   -4.0,   -4.1,   -4.0,   -4.2,   -4.6,   -4.6,   -4.3,   -4.4,   -4.2,   -3.9,   -3.8,   -3.5,   -3.6,   -3.5,   -3.4,   -3.8,   -3.2,   -2.8,  999.0,   -2.5,  999.0,  999.0,  999.0,  999.0,  999.0,   -3.0,  999.0,  999.0,  999.0,  999.0,  999.0,  999.0,  999.0,  999.0,  999.0,  999.0,   -1.9,   -2.0,   -1.8,  999.0,   -4.1,   -3.0,   -2.3,   -2.9,   -2.8,   -2.6,   -3.1,   -4.1
2004/10/20 17:30,   -3.6,   -3.8,   -3.7,   -3.7,   -4.1,   -4.1,   -4.2,   -3.8,   -2.5,   -5.6,   -5.6,   -6.0,   -6.0,   -5.6,   -6.2,   -7.4,   -7.3,   -5.5,   -6.1,  999.0,  999.0,   -6.4,   -6.3,   -6.3,   -6.2,   -6.7,   -6.7,   -6.7,   -6.9,   -7.6,   -6.8,   -6.6,   -6.5,   -6.4,   -6.4,   -6.9,   -6.6,   -6.0,   -5.2,  999.0,  999.0,  999.0,   -6.5,   -6.3,   -5.7,   -5.4,   -5.1,   -5.0,   -4.8,   -4.8,   -4.5,   -4.1,  999.0,  999.0,  999.0,  999.0,  999.0,   -3.8,   -3.6,   -3.6,   -3.6,   -3.1,   -3.2,   -3.4,   -3.2,   -3.1,   -4.1,   -4.3,   -4.1,   -3.9
2004/10/20 17:40,   -6.8,   -6.6,   -6.5,   -6.5,   -6.5,   -6.6,   -6.7,   -6.8,   -7.0,   -6.8,   -6.7,   -6.8,   -6.7,   -6.4,   -7.0,   -6.7,   -6.5,   -6.6,   -6.8,   -7.2,   -7.0,   -7.2,   -7.2,  999.0,   -7.7,   -7.6,   -7.8,   -7.5,   -7.8,   -7.6,   -7.8,   -7.6,   -7.7,   -7.6,   -7.7,   -7.5,   -7.4,   -7.2,   -7.1,   -6.7,   -6.9,   -6.4,   -5.8,   -5.9,   -5.3,   -4.9,   -4.6,   -4.4,   -4.2,   -3.9,   -3.8,   -3.8,   -3.7,   -3.7,   -3.5,   -3.3,   -3.2,   -3.1,   -2.9,   -2.8,   -2.8,   -2.6,   -2.5,   -2.4,   -2.4,   -2.2,   -2.2,   -2.2,   -2.2,   -2.1
2004/10/20 17:50,   -6.0,   -5.9,   -5.9,   -6.0,   -5.9,   -5.9,   -6.2,   -6.0,   -6.1,   -6.1,   -6.1,   -6.1,   -6.5,  999.0,  999.0,  999.0,  999.0,  999.0,  999.0,  999.0,  999.0,  999.0,  999.0,  999.0,  999.0,  999.0,  999.0,  999.0,  999.0,  999.0,  999.0,  999.0,  999.0,  999.0,  999.0,  999.0,  999.0,  999.0,  999.0,  999.0,  999.0,  999.0,  999.0,  999.0,  999.0,  999.0,  999.0,  999.0,   -4.3,   -4.0,   -3.8,   -3.6,   -3.2,   -2.9,   -2.8,   -2.7,   -2.6,   -2.6,   -2.5,   -2.5,   -2.5,   -2.4,   -2.5,   -2.5,   -2.6,   -2.5,   -2.5,   -2.3,   -2.6,   -2.5
2004/10/20 18:00,   -6.6,   -6.6,   -6.6,   -6.6,   -6.6,   -6.8,   -7.2,   -7.0,   -7.0,   -7.0,   -6.8,   -7.0,   -7.4,   -7.1,   -8.7,  999.0,  999.0,  999.0,  999.0,  999.0,  999.0,  999.0,  999.0,  999.0,   -8.9,  999.0,   -8.6,   -8.5,  999.0,   -7.4,  999.0,   -8.1,   -7.6,   -7.6,   -7.3,   -8.2,  999.0,   -7.5,   -6.8,   -6.7,   -6.6,   -6.6,   -6.4,   -6.1,  999.0,  999.0,   -5.5,   -5.1,   -4.0,   -3.7,   -3.7,   -3.7,   -3.4,   -3.4,   -3.4,   -3.3,   -3.2,   -3.3,   -3.2,   -3.1,   -2.9,   -2.9,   -2.6,   -3.0,   -2.8,   -2.7,   -2.6,   -2.6,   -2.6,   -2.5
2004/10/20 18:10,   -7.2,   -7.0,   -8.4,   -6.8,   -7.1,   -7.9,   -7.7,   -7.3,   -8.4,   -7.6,   -7.5,   -8.5,  999.0,   -7.6,  999.0,   -6.6,   -7.8,   -6.6,  999.0,   -5.4,   -6.0,   -5.8,   -5.6,   -5.8,   -5.6,   -6.0,   -6.1,   -5.9,   -6.0,   -5.9,   -5.8,   -5.6,   -5.3,   -5.2,   -5.0,   -4.9,   -4.8,   -4.6,   -4.7,   -4.6,   -4.0,   -3.6,   -3.6,   -3.7,   -3.7,   -3.6,   -3.6,   -3.8,   -3.7,   -3.5,   -3.3,   -3.3,   -3.3,   -3.2,  999.0,  999.0,  999.0,  999.0,  999.0,  999.0,  999.0,  999.0,  999.0,  999.0,  999.0,  999.0,  999.0,  999.0,  999.0,  999.0
2004/10/20 18:20,   -5.3,   -4.9,   -5.3,   -5.3,   -5.3,   -5.3,   -5.3,   -5.2,   -5.5,   -5.1,   -5.0,   -5.2,   -5.1,   -4.9,   -4.8,  999.0,  999.0,  999.0,  999.0,  999.0,  999.0,   -5.1,   -5.0,  999.0,   -5.2,  999.0,  999.0,   -4.9,   -4.9,   -4.7,   -4.6,   -4.4,   -4.3,   -3.6,   -3.1,   -2.8,   -2.9,   -2.9,   -3.0,   -2.7,  999.0,  999.0,  999.0,  999.0,  999.0,  999.0,  999.0,  999.0,  999.0,  999.0,  999.0,  999.0,  999.0,  999.0,  999.0,  999.0,  999.0,  999.0,  999.0,  999.0,  999.0,  999.0,  999.0,  999.0,  999.0,  999.0,  999.0,  999.0,  999.0,  999.0
2004/10/20 18:30,   -4.4,   -4.3,   -4.2,   -4.0,   -4.0,   -4.0,   -4.0,   -3.9,   -3.9,   -4.4,   -4.0,   -3.6,   -3.4,   -3.1,   -4.3,   -2.4,   -3.8,  999.0,  999.0,  999.0,  999.0,  999.0,  999.0,  999.0,  999.0,  999.0,  999.0,  999.0,  999.0,   -2.6,   -2.6,   -2.7,   -2.3,   -2.7,  999.0,  999.0,  999.0,  999.0,  999.0,  999.0,  999.0,  999.0,  999.0,  999.0,  999.0,  999.0,  999.0,  999.0,  999.0,  999.0,  999.0,  999.0,  999.0,  999.0,  999.0,  999.0,  999.0,  999.0,  999.0,  999.0,  999.0,  999.0,  999.0,  999.0,  999.0,  999.0,  999.0,  999.0,  999.0,  999.0
2004/10/20 18:40,  999.0,  999.0,  999.0,  999.0,  999.0,  999.0,  999.0,  999.0,  999.0,  999.0,  999.0,  999.0,  999.0,  999.0,  999.0,  999.0,  999.0,  999.0,  999.0,  999.0,  999.0,  999.0,  999.0,  999.0,  999.0,  999.0,  999.0,  999.0,  999.0,  999.0,  999.0,  999.0,  999.0,  999.0,  999.0,  999.0,  999.0,  999.0,  999.0,  999.0,  999.0,  999.0,  999.0,  999.0,  999.0,  999.0,  999.0,  999.0,  999.0,  999.0,  999.0,  999.0,  999.0,  999.0,  999.0,  999.0,  999.0,  999.0,  999.0,  999.0,  999.0,  999.0,  999.0,  999.0,  999.0,  999.0,  999.0,  999.0,  999.0,  999.0
2004/10/20 18:50,  999.0,   -1.9,   -2.5,   -3.5,   -4.0,   -0.4,   -2.9,   -2.9,   -3.0,   -1.5,   -1.2,   -4.1,   -2.9,   -1.9,   -1.5,   -1.9,   -1.3,  999.0,  999.0,   -1.4,  999.0,  999.0,   -0.2,  999.0,   -0.0,    0.5,  999.0,   -0.8,   -0.4,   -0.4,   -0.2,   -0.1,  999.0,  999.0,  999.0,  999.0,  999.0,  999.0,  999.0,  999.0,  999.0,  999.0,  999.0,  999.0,  999.0,  999.0,  999.0,  999.0,  999.0,  999.0,  999.0,   -2.0,  999.0,  999.0,  999.0,  999.0,  999.0,  999.0,  999.0,  999.0,  999.0,  999.0,  999.0,  999.0,  999.0,  999.0,  999.0,  999.0,  999.0,  999.0
2004/10/20 19:00,   -0.0,   -0.0,   -0.1,   -0.2,   -0.2,   -0.1,   -1.1,   -0.6,   -0.7,   -0.9,   -1.1,   -1.4,   -1.3,   -1.6,   -2.3,   -2.3,   -2.1,   -1.7,   -1.6,   -1.7,  999.0,   -0.9,   -0.0,   -0.6,   -0.6,   -0.7,   -0.6,   -0.3,   -0.3,   -0.4,   -1.0,    0.1,    0.0,  999.0,   -0.1,   -0.0,  999.0,   -0.3,   -0.2,   -0.1,  999.0,   -0.1,  999.0,  999.0,  999.0,  999.0,   -0.0,  999.0,  999.0,    0.0,  999.0,  999.0,  999.0,  999.0,  999.0,  999.0,  999.0,  999.0,   -0.1,  999.0,  999.0,  999.0,  999.0,  999.0,  999.0,  999.0,  999.0,  999.0,  999.0,  999.0
2004/10/20 19:10,   -0.0,   -0.1,   -0.2,   -0.3,   -0.3,   -0.2,   -0.3,   -0.5,   -1.2,   -1.1,   -1.1,   -1.2,   -1.3,   -1.1,   -0.9,   -1.4,   -1.4,   -1.2,  999.0,  999.0,  999.0,  999.0,   -0.2,   -0.7,  999.0,  999.0,   -0.7,   -0.2,    0.1,   -0.1,   -0.0,   -0.0,   -0.0,   -0.1,  999.0,  999.0,  999.0,  999.0,  999.0,  999.0,  999.0,  999.0,  999.0,  999.0,  999.0,  999.0,  999.0,  999.0,  999.0,  999.0,  999.0,  999.0,  999.0,  999.0,  999.0,  999.0,  999.0,  999.0,  999.0,  999.0,  999.0,  999.0,  999.0,  999.0,  999.0,  999.0,  999.0,  999.0,  999.0,  999.0
2004/10/20 19:20,  999.0,   -0.1,   -0.1,   -0.1,   -0.2,   -0.8,   -0.7,   -0.8,   -1.4,   -1.2,   -1.2,   -1.3,   -1.0,   -1.1,   -1.0,   -1.0,   -1.0,   -1.2,   -1.1,  999.0,   -1.0,   -0.2,   -0.3,   -0.5,    0.0,   -0.4,   -0.1,   -0.0,    0.0,   -0.1,   -0.0,    0.0,    0.0,    0.0,  999.0,  999.0,  999.0,  999.0,  999.0,  999.0,  999.0,  999.0,  999.0,  999.0,  999.0,  999.0,  999.0,  999.0,  999.0,  999.0,  999.0,  999.0,  999.0,  999.0,  999.0,  999.0,  999.0,  999.0,  999.0,  999.0,  999.0,  999.0,  999.0,  999.0,  999.0,  999.0,  999.0,  999.0,  999.0,  999.0
2004/10/20 19:30,   -2.7,  999.0,   -3.0,   -2.6,   -3.0,   -2.8,   -2.5,   -2.3,   -2.0,   -1.8,   -2.0,   -2.2,   -1.8,   -1.8,   -1.6,   -1.6,   -1.4,   -1.2,   -0.9,   -0.4,   -0.6,    0.1,    0.3,    0.3,   -0.2,  999.0,    0.0,   -0.1,   -0.0,   -0.0,   -0.0,   -0.1,   -0.0,    0.1,   -0.2,  999.0,  999.0,  999.0,  999.0,  999.0,  999.0,  999.0,  999.0,  999.0,  999.0,  999.0,  999.0,  999.0,  999.0,  999.0,  999.0,  999.0,  999.0,  999.0,  999.0,  999.0,  999.0,  999.0,  999.0,  999.0,    0.4,  999.0,  999.0,    0.4,  999.0,  999.0,  999.0,  999.0,  999.0,  999.0
2004/10/20 19:40,   -3.4,   -3.9,   -4.5,   -4.3,   -3.8,   -3.7,   -3.4,   -3.3,   -3.0,   -2.7,   -2.7,   -2.5,   -2.4,   -2.4,   -2.5,   -2.4,   -1.9,   -1.6,   -1.6,   -1.1,   -0.4,   -0.5,   -0.2,   -0.1,   -0.3,   -0.0,   -0.1,   -0.2,   -0.1,   -0.1,   -0.0,    0.0,    0.1,   -0.0,  999.0,  999.0,  999.0,  999.0,  999.0,  999.0,  999.0,  999.0,  999.0,  999.0,  999.0,  999.0,  999.0,  999.0,  999.0,  999.0,  999.0,  999.0,  999.0,  999.0,  999.0,  999.0,  999.0,  999.0,  999.0,  999.0,  999.0,  999.0,  999.0,  999.0,  999.0,  999.0,  999.0,  999.0,  999.0,  999.0
2004/10/20 19:50,   -3.6,   -4.0,   -4.1,   -4.8,   -4.5,   -4.2,   -4.0,   -3.6,   -3.4,   -3.2,   -3.2,   -2.9,   -2.8,   -2.5,   -2.1,   -1.7,   -1.4,   -1.1,   -1.0,   -1.0,   -0.8,   -0.7,   -0.4,   -0.2,   -0.1,    0.0,   -0.4,   -0.3,   -0.2,   -0.1,    0.0,   -0.0,   -0.0,  999.0,  999.0,  999.0,  999.0,  999.0,  999.0,  999.0,  999.0,  999.0,  999.0,  999.0,  999.0,  999.0,  999.0,  999.0,  999.0,  999.0,  999.0,  999.0,  999.0,  999.0,  999.0,  999.0,  999.0,  999.0,  999.0,  999.0,  999.0,  999.0,  999.0,  999.0,  999.0,  999.0,  999.0,  999.0,  999.0,  999.0
2004/10/20 20:00,   -2.8,   -2.9,   -2.9,   -2.7,   -2.5,   -2.5,   -2.6,   -2.6,   -2.5,   -2.2,   -2.1,   -1.9,   -1.8,   -1.5,   -1.3,   -1.1,   -1.0,   -0.7,   -0.8,   -0.3,   -0.5,   -0.2,   -0.3,   -0.1,   -0.3,   -0.1,   -0.2,   -0.3,   -0.1,    0.2,  999.0,  999.0,  999.0,  999.0,  999.0,  999.0,  999.0,  999.0,  999.0,  999.0,  999.0,  999.0,  999.0,  999.0,  999.0,  999.0,  999.0,  999.0,  999.0,  999.0,  999.0,  999.0,  999.0,  999.0,  999.0,  999.0,  999.0,  999.0,  999.0,  999.0,  999.0,  999.0,  999.0,  999.0,  999.0,  999.0,  999.0,  999.0,  999.0,  999.0
2004/10/20 20:10,   -2.1,   -1.7,   -1.9,   -2.2,   -2.2,   -1.9,   -1.8,   -1.7,   -1.6,   -1.5,   -1.6,   -1.3,   -1.4,   -1.3,   -1.4,   -1.5,   -1.6,   -1.7,   -1.9,   -1.2,  999.0,  999.0,   -0.3,   -0.1,   -0.2,    0.0,   -0.2,   -0.2,   -0.2,    0.0,  999.0,    0.1,   -0.0,  999.0,  999.0,  999.0,  999.0,  999.0,  999.0,  999.0,  999.0,  999.0,  999.0,  999.0,  999.0,  999.0,  999.0,  999.0,  999.0,  999.0,  999.0,  999.0,  999.0,  999.0,  999.0,  999.0,  999.0,  999.0,  999.0,  999.0,  999.0,  999.0,  999.0,  999.0,  999.0,  999.0,  999.0,  999.0,  999.0,  999.0
2004/10/20 20:20,   -1.3,   -1.8,   -1.3,   -1.4,   -1.6,   -1.7,   -1.5,   -1.2,   -1.0,   -1.0,   -0.9,   -0.8,   -0.9,   -0.9,   -1.1,   -0.7,   -0.7,   -0.4,    0.1,   -0.2,   -0.3,    0.0,    0.1,    0.0,    0.2,   -0.0,    0.1,    0.0,    0.1,    0.1,    0.0,   -0.0,    0.0,    0.1,  999.0,  999.0,  999.0,  999.0,  999.0,  999.0,  999.0,  999.0,  999.0,  999.0,  999.0,  999.0,  999.0,  999.0,  999.0,  999.0,  999.0,  999.0,  999.0,  999.0,  999.0,  999.0,  999.0,  999.0,  999.0,  999.0,  999.0,  999.0,  999.0,  999.0,  999.0,  999.0,  999.0,  999.0,  999.0,  999.0
2004/10/20 20:30,   -0.1,   -0.2,   -0.1,   -0.2,   -0.1,   -0.3,   -0.1,   -0.2,   -0.1,   -0.0,   -0.0,   -0.0,   -0.0,    0.1,    0.3,    0.7,    0.6,    0.7,    0.5,    1.2,  999.0,   -0.0,    0.2,    0.3,    0.2,  999.0,  999.0,    0.3,    0.2,   -0.0,    0.1,  999.0,   -0.0,  999.0,  999.0,  999.0,  999.0,  999.0,  999.0,  999.0,  999.0,  999.0,  999.0,  999.0,  999.0,  999.0,  999.0,  999.0,  999.0,  999.0,  999.0,  999.0,  999.0,  999.0,  999.0,  999.0,  999.0,  999.0,  999.0,  999.0,  999.0,  999.0,  999.0,  999.0,  999.0,  999.0,  999.0,  999.0,  999.0,  999.0
2004/10/20 20:40,    0.0,   -0.1,   -0.1,   -0.2,   -0.1,   -0.2,    0.1,   -0.1,   -0.1,   -0.1,   -0.0,    0.3,    0.5,    0.6,    0.5,    0.7,    0.7,    0.6,    0.4,    0.4,    0.0,    0.1,    0.1,    0.1,   -0.0,    0.1,    0.1,   -0.1,    0.1,   -0.1,  999.0,    0.0,   -0.1,   -0.0,  999.0,  999.0,  999.0,  999.0,  999.0,  999.0,  999.0,  999.0,  999.0,  999.0,  999.0,  999.0,  999.0,  999.0,  999.0,  999.0,  999.0,  999.0,  999.0,  999.0,  999.0,  999.0,  999.0,  999.0,  999.0,  999.0,  999.0,  999.0,  999.0,  999.0,  999.0,  999.0,  999.0,  999.0,  999.0,  999.0
2004/10/20 20:50,   -0.0,   -0.0,   -0.0,   -0.1,   -0.2,   -0.0,   -0.0,   -0.0,   -0.0,    0.0,    0.1,    0.4,   -0.0,    0.1,    0.4,    0.1,    0.1,    0.2,    0.2,    0.2,    0.2,    0.3,    0.1,   -0.0,   -0.0,    0.1,    0.1,    0.1,  999.0,  999.0,  999.0,  999.0,    0.0,  999.0,  999.0,  999.0,  999.0,  999.0,  999.0,  999.0,  999.0,  999.0,  999.0,  999.0,  999.0,  999.0,  999.0,  999.0,  999.0,  999.0,  999.0,  999.0,  999.0,  999.0,  999.0,  999.0,  999.0,  999.0,  999.0,  999.0,  999.0,  999.0,  999.0,  999.0,  999.0,  999.0,  999.0,  999.0,  999.0,  999.0
2004/10/20 21:00,   -0.1,   -0.1,   -0.1,   -0.4,   -0.3,   -0.4,   -0.7,   -0.3,   -0.7,   -0.8,   -0.3,   -0.5,   -0.5,   -0.5,   -0.3,   -0.3,   -0.3,    0.1,   -0.1,   -0.1,    0.4,    0.0,   -0.1,   -0.0,   -0.6,    0.1,   -0.0,   -0.0,    0.0,  999.0,  999.0,   -0.1,   -0.0,  999.0,  999.0,  999.0,  999.0,  999.0,  999.0,  999.0,  999.0,  999.0,  999.0,  999.0,  999.0,  999.0,  999.0,  999.0,  999.0,  999.0,  999.0,  999.0,  999.0,  999.0,  999.0,  999.0,  999.0,  999.0,  999.0,  999.0,  999.0,  999.0,  999.0,  999.0,  999.0,  999.0,  999.0,  999.0,  999.0,  999.0
2004/10/20 21:10,  999.0,   -0.3,   -0.0,   -0.3,   -0.5,   -0.4,   -0.1,   -0.1,   -0.6,   -1.2,   -1.0,   -1.1,   -1.1,   -1.2,   -1.3,   -1.2,   -1.1,   -0.9,   -1.0,   -1.2,   -0.9,   -0.9,   -0.6,   -0.1,    0.0,  999.0,   -0.3,   -0.1,   -0.0,  999.0,  999.0,  999.0,   -0.2,  999.0,  999.0,  999.0,  999.0,  999.0,  999.0,  999.0,  999.0,  999.0,  999.0,  999.0,  999.0,  999.0,  999.0,  999.0,  999.0,  999.0,  999.0,  999.0,  999.0,  999.0,  999.0,  999.0,  999.0,  999.0,  999.0,  999.0,  999.0,  999.0,  999.0,  999.0,  999.0,  999.0,  999.0,  999.0,  999.0,  999.0
2004/10/20 21:20,   -0.0,   -0.0,   -0.1,   -0.2,   -0.1,   -0.2,   -0.5,   -0.2,    0.0,   -0.1,    0.2,    0.1,    0.1,    0.2,    0.1,    0.3,    0.2,    0.4,    0.3,    0.4,    0.5,    0.3,    0.5,    0.3,    0.6,    0.7,    0.2,    0.1,   -0.1,  999.0,  999.0,    0.0,  999.0,  999.0,  999.0,  999.0,  999.0,  999.0,  999.0,  999.0,  999.0,  999.0,  999.0,  999.0,  999.0,  999.0,  999.0,  999.0,  999.0,  999.0,  999.0,  999.0,  999.0,  999.0,  999.0,  999.0,  999.0,  999.0,  999.0,  999.0,  999.0,  999.0,  999.0,   -0.4,  999.0,  999.0,  999.0,  999.0,  999.0,  999.0
2004/10/20 21:30,   -0.1,   -0.1,   -0.2,   -0.9,   -1.4,   -1.4,   -1.6,   -1.7,   -1.5,   -1.1,   -0.9,   -0.7,   -0.3,   -0.1,   -0.1,    0.1,    0.0,   -0.1,    0.5,    0.2,    0.0,    0.1,    0.2,    0.2,    0.4,    0.6,    1.0,    0.2,    0.2,  999.0,  999.0,  999.0,  999.0,  999.0,  999.0,  999.0,  999.0,  999.0,  999.0,  999.0,  999.0,  999.0,  999.0,  999.0,  999.0,  999.0,  999.0,  999.0,  999.0,  999.0,  999.0,  999.0,  999.0,  999.0,  999.0,  999.0,  999.0,  999.0,  999.0,  999.0,  999.0,  999.0,  999.0,  999.0,  999.0,  999.0,  999.0,  999.0,  999.0,  999.0
2004/10/20 21:40,   -0.1,   -0.2,   -0.3,   -0.8,   -1.4,   -1.7,   -1.7,   -1.7,   -1.7,   -1.7,   -1.6,   -1.2,   -0.7,   -0.3,   -0.2,   -0.2,   -0.2,   -0.1,    0.2,    0.1,   -0.0,    0.4,    0.1,    0.5,    0.5,    0.3,    0.6,   -0.1,    0.2,    0.7,    0.1,    0.2,   -0.0,    0.0,  999.0,  999.0,   -0.8,  999.0,  999.0,  999.0,  999.0,  999.0,  999.0,  999.0,  999.0,  999.0,  999.0,  999.0,  999.0,  999.0,  999.0,  999.0,  999.0,  999.0,  999.0,  999.0,  999.0,  999.0,  999.0,  999.0,  999.0,  999.0,  999.0,  999.0,  999.0,  999.0,  999.0,   -0.7,  999.0,  999.0
2004/10/20 21:50,   -0.1,   -0.2,   -0.2,   -1.0,   -1.0,   -1.4,   -1.3,   -1.2,   -1.1,   -1.2,   -1.1,   -0.8,   -0.6,   -0.1,    0.6,    0.9,    1.3,    1.6,    1.8,    1.9,    2.2,    2.3,    2.2,    2.8,    2.6,    2.6,    2.1,  999.0,    0.3,  999.0,  999.0,    0.4,    0.3,  999.0,  999.0,  999.0,  999.0,  999.0,  999.0,  999.0,  999.0,  999.0,  999.0,  999.0,  999.0,  999.0,  999.0,  999.0,  999.0,  999.0,  999.0,  999.0,  999.0,  999.0,  999.0,  999.0,  999.0,  999.0,  999.0,  999.0,  999.0,  999.0,  999.0,  999.0,  999.0,  999.0,  999.0,  999.0,  999.0,  999.0
2004/10/20 22:00,   -0.1,   -0.2,   -0.5,   -1.1,   -1.4,   -1.5,   -1.3,   -1.1,   -1.1,   -1.2,   -0.9,   -0.2,   -0.5,   -0.3,   -0.2,   -0.0,   -0.0,    0.3,    0.1,    0.2,    0.2,    0.3,    0.4,    0.2,    0.3,    0.9,    0.4,    0.4,   -0.1,    0.1,    0.1,    0.0,   -0.2,    0.1,  999.0,  999.0,  999.0,  999.0,  999.0,  999.0,  999.0,   -0.2,  999.0,  999.0,  999.0,  999.0,  999.0,  999.0,  999.0,  999.0,  999.0,  999.0,  999.0,  999.0,  999.0,  999.0,  999.0,  999.0,  999.0,  999.0,  999.0,  999.0,  999.0,  999.0,  999.0,  999.0,  999.0,  999.0,  999.0,  999.0
2004/10/20 22:10,  999.0,   -0.0,   -0.5,   -1.2,   -1.4,   -1.8,   -1.4,   -1.3,   -1.6,   -1.6,   -1.3,   -1.1,   -1.0,   -0.7,   -0.5,   -0.6,   -0.1,   -0.2,   -0.4,   -0.2,   -0.3,    0.1,    0.1,    0.1,    0.1,    0.1,    0.0,   -0.1,   -0.1,   -0.1,    0.0,   -0.2,   -0.3,  999.0,  999.0,  999.0,  999.0,  999.0,  999.0,  999.0,  999.0,  999.0,  999.0,  999.0,  999.0,  999.0,  999.0,  999.0,  999.0,  999.0,  999.0,  999.0,  999.0,  999.0,  999.0,  999.0,  999.0,  999.0,  999.0,  999.0,  999.0,  999.0,  999.0,  999.0,  999.0,  999.0,  999.0,  999.0,  999.0,  999.0
2004/10/20 22:20,   -0.1,   -0.0,   -0.1,   -0.1,   -0.1,   -0.2,   -0.8,   -0.8,   -0.8,   -1.1,   -0.3,   -0.4,   -0.7,   -0.8,   -0.7,   -0.8,   -0.8,   -0.6,   -0.8,   -0.7,   -0.7,   -0.3,   -0.0,   -0.3,   -0.5,   -0.7,   -0.6,   -0.1,   -0.0,   -0.0,    0.0,    0.1,    0.1,  999.0,  999.0,  999.0,  999.0,  999.0,  999.0,  999.0,  999.0,  999.0,  999.0,  999.0,  999.0,  999.0,  999.0,  999.0,  999.0,  999.0,  999.0,  999.0,  999.0,  999.0,  999.0,  999.0,  999.0,  999.0,  999.0,  999.0,  999.0,  999.0,  999.0,  999.0,  999.0,  999.0,  999.0,  999.0,  999.0,  999.0
2004/10/20 22:30,    0.0,   -0.0,   -0.0,   -0.0,    0.3,   -0.1,    0.0,    0.0,   -0.1,   -0.2,   -0.3,   -0.3,   -0.1,   -0.1,    0.1,    0.2,    0.0,    0.0,   -0.0,   -0.4,   -0.4,    0.1,    0.0,    0.0,   -0.4,   -0.2,   -0.1,   -0.2,   -0.1,   -0.0,   -0.2,   -0.2,   -0.3,   -0.2,   -0.6,   -0.5,  999.0,  999.0,  999.0,  999.0,  999.0,  999.0,  999.0,  999.0,  999.0,  999.0,  999.0,  999.0,  999.0,  999.0,  999.0,  999.0,  999.0,  999.0,  999.0,  999.0,  999.0,  999.0,  999.0,  999.0,  999.0,  999.0,  999.0,  999.0,  999.0,  999.0,   -0.4,  999.0,  999.0,  999.0
2004/10/20 22:40,   -0.4,   -0.0,   -0.1,   -0.1,   -0.0,    0.0,    0.0,   -0.2,   -0.1,   -0.3,   -0.1,    0.0,   -0.1,   -0.1,   -0.3,   -0.3,   -0.7,   -0.5,   -0.6,   -0.5,   -0.5,   -0.7,   -0.2,   -0.3,   -0.8,    0.1,   -0.2,   -0.2,    0.1,    0.1,    0.2,    0.1,    0.0,  999.0,  999.0,  999.0,  999.0,  999.0,  999.0,  999.0,  999.0,  999.0,  999.0,  999.0,  999.0,  999.0,  999.0,  999.0,  999.0,  999.0,  999.0,  999.0,  999.0,  999.0,  999.0,  999.0,  999.0,  999.0,  999.0,  999.0,  999.0,  999.0,  999.0,  999.0,  999.0,  999.0,  999.0,  999.0,  999.0,  999.0
2004/10/20 22:50,    0.0,   -0.0,   -0.1,   -0.0,   -0.1,   -0.0,   -0.1,   -0.0,   -0.2,   -0.1,   -0.8,   -0.5,   -0.5,   -0.9,   -0.9,   -1.0,   -1.0,   -0.9,   -1.0,   -0.9,   -1.0,   -1.0,   -0.5,   -0.8,   -1.0,   -0.5,   -0.4,   -0.6,   -0.2,   -0.2,    0.0,    0.0,  999.0,   -0.0,  999.0,  999.0,  999.0,  999.0,  999.0,  999.0,  999.0,  999.0,  999.0,  999.0,  999.0,  999.0,  999.0,  999.0,  999.0,  999.0,  999.0,  999.0,  999.0,  999.0,  999.0,  999.0,  999.0,  999.0,  999.0,  999.0,  999.0,  999.0,  999.0,  999.0,  999.0,  999.0,  999.0,  999.0,  999.0,  999.0
2004/10/20 23:00,   -0.0,    0.0,    0.0,   -0.0,    0.0,    0.0,    0.0,    0.0,    0.1,   -0.2,   -0.1,    0.2,    0.1,   -0.0,   -0.4,   -0.6,   -0.3,   -0.3,   -0.1,   -0.4,   -0.4,   -0.3,   -0.2,   -0.2,   -0.2,   -0.2,   -0.2,   -0.3,   -0.1,   -0.1,   -0.0,    0.0,    0.0,   -0.0,  999.0,  999.0,  999.0,  999.0,  999.0,    0.6,  999.0,  999.0,  999.0,  999.0,  999.0,  999.0,  999.0,  999.0,  999.0,  999.0,  999.0,  999.0,  999.0,  999.0,  999.0,  999.0,  999.0,  999.0,  999.0,  999.0,  999.0,  999.0,  999.0,  999.0,  999.0,  999.0,  999.0,  999.0,  999.0,  999.0
2004/10/20 23:10,    0.0,   -0.0,    0.0,    0.0,    0.0,   -0.0,   -0.1,    0.0,   -0.1,   -0.2,   -0.3,   -0.2,   -0.1,   -0.3,   -0.6,   -0.4,   -0.3,   -0.6,   -0.4,   -0.4,   -0.5,   -0.4,   -0.2,   -0.1,   -0.3,   -0.4,   -0.0,    0.0,    0.1,    0.2,    0.3,    0.2,    0.0,    0.1,  999.0,  999.0,  999.0,  999.0,  999.0,    1.3,  999.0,  999.0,  999.0,  999.0,  999.0,  999.0,  999.0,  999.0,  999.0,  999.0,  999.0,  999.0,  999.0,  999.0,  999.0,  999.0,  999.0,  999.0,  999.0,  999.0,  999.0,  999.0,  999.0,  999.0,  999.0,  999.0,  999.0,  999.0,  999.0,  999.0
2004/10/20 23:20,   -0.0,   -0.0,   -0.0,   -0.0,   -0.0,   -0.0,   -0.1,   -0.2,   -0.2,   -0.1,   -0.2,   -0.3,   -0.4,   -0.4,   -0.5,   -0.6,   -0.7,   -0.7,   -0.5,   -0.4,   -0.6,   -0.6,   -0.3,   -0.1,   -0.2,   -0.5,   -0.3,   -0.2,   -0.1,   -0.4,    0.0,   -0.0,   -0.0,   -0.3,   -0.4,   -0.6,   -0.5,   -0.4,   -0.4,   -0.3,   -0.1,    0.1,  999.0,  999.0,  999.0,  999.0,  999.0,  999.0,  999.0,  999.0,  999.0,  999.0,  999.0,  999.0,  999.0,  999.0,  999.0,  999.0,  999.0,  999.0,  999.0,  999.0,  999.0,  999.0,  999.0,  999.0,  999.0,  999.0,  999.0,  999.0
2004/10/20 23:30,   -0.0,   -0.0,    0.0,   -0.0,   -0.0,   -0.0,   -0.1,   -0.1,    0.1,    0.0,    0.2,    0.0,    0.0,   -0.0,   -0.3,   -0.3,   -0.4,   -0.3,   -0.2,   -0.2,   -0.2,   -0.2,   -0.2,   -0.1,   -0.1,   -0.3,   -0.1,   -0.0,    0.0,    0.3,    0.3,    0.1,   -0.1,   -0.5,    0.1,  999.0,  999.0,  999.0,   -0.0,    0.6,    0.4,  999.0,    0.3,  999.0,  999.0,  999.0,  999.0,  999.0,  999.0,  999.0,  999.0,  999.0,  999.0,  999.0,  999.0,  999.0,  999.0,  999.0,  999.0,  999.0,  999.0,  999.0,  999.0,  999.0,  999.0,  999.0,  999.0,  999.0,  999.0,  999.0
2004/10/20 23:40,   -0.0,    0.0,   -0.0,    0.0,    0.1,    0.1,   -0.1,    0.0,   -0.0,    0.0,    0.4,    0.4,    0.5,    0.4,    0.5,    0.4,    0.3,    0.2,    0.2,   -0.0,   -0.0,   -0.0,   -0.1,    0.1,    0.1,    0.3,    0.1,    0.1,   -0.1,   -0.2,   -0.1,    0.1,    0.0,   -0.4,    0.1,    0.0,  999.0,   -0.1,   -0.1,    0.6,    0.5,    0.1,  999.0,  999.0,  999.0,  999.0,    0.1,  999.0,  999.0,  999.0,  999.0,  999.0,  999.0,  999.0,  999.0,  999.0,  999.0,  999.0,  999.0,  999.0,  999.0,  999.0,  999.0,  999.0,  999.0,  999.0,  999.0,  999.0,  999.0,  999.0
2004/10/20 23:50,    0.0,   -0.0,    0.0,   -0.0,    0.0,    0.0,   -0.0,    0.0,    0.2,    0.2,    0.4,    0.2,    0.2,    0.1,    0.4,    0.4,    0.2,    0.6,    0.4,    0.3,    0.2,    0.1,    0.3,    0.1,    0.3,    0.5,    0.6,    0.4,    0.3,    0.7,    0.9,    0.8,    0.5,  999.0,  999.0,  999.0,  999.0,  999.0,    1.2,    2.2,  999.0,  999.0,  999.0,  999.0,  999.0,  999.0,  999.0,  999.0,  999.0,  999.0,  999.0,  999.0,  999.0,  999.0,  999.0,  999.0,  999.0,  999.0,  999.0,  999.0,  999.0,  999.0,  999.0,  999.0,  999.0,  999.0,  999.0,  999.0,  999.0,    0.4
